Wetterdaten: Sonntag, 04.11.2018
Datum Zeit Temp. Aussen Temp. o. S. +5cm Feuchte Auss Luftdruck Regen Sonnenschein Regendauer Solar Windben Empfang
04.11.2018 00:00 2,0 C 1,7 C 1,1 C 94 % 1020,4 hPa 0,0 l/m 0 min 0 min 0 W/m 3,2 km/h (1 Bft) 97,87 %
04.11.2018 00:02 2,0 C 1,7 C 1,1 C 94 % 1020,4 hPa 0,0 l/m 0 min 0 min 0 W/m 6,4 km/h (2 Bft) 100,00 %
04.11.2018 00:04 2,0 C 1,7 C 1,1 C 94 % 1020,4 hPa 0,0 l/m 0 min 0 min 0 W/m 3,2 km/h (1 Bft) 95,74 %
04.11.2018 00:07 2,0 C 1,7 C 1,1 C 94 % 1020,3 hPa 0,0 l/m 0 min 0 min 0 W/m 3,2 km/h (1 Bft) 95,74 %
04.11.2018 00:08 2,0 C 1,7 C 1,1 C 94 % 1020,3 hPa 0,0 l/m 0 min 0 min 0 W/m 3,2 km/h (1 Bft) 97,87 %
04.11.2018 00:10 2,0 C 1,7 C 1,1 C 94 % 1020,3 hPa 0,0 l/m 0 min 0 min 0 W/m 6,4 km/h (2 Bft) 100,00 %
04.11.2018 00:12 2,0 C 1,7 C 1,1 C 94 % 1020,2 hPa 0,0 l/m 0 min 0 min 0 W/m 3,2 km/h (1 Bft) 97,87 %
04.11.2018 00:14 2,0 C 1,7 C 1,1 C 94 % 1020,2 hPa 0,0 l/m 0 min 0 min 0 W/m 0,0 km/h (0 Bft) 97,87 %
04.11.2018 00:16 2,0 C 1,7 C 1,1 C 94 % 1020,2 hPa 0,0 l/m 0 min 0 min 0 W/m 0,0 km/h (0 Bft) 97,87 %
04.11.2018 00:18 2,0 C 1,7 C 1,1 C 94 % 1020,2 hPa 0,0 l/m 0 min 0 min 0 W/m 0,0 km/h (0 Bft) 100,00 %
04.11.2018 00:20 2,0 C 1,7 C 1,1 C 94 % 1020,1 hPa 0,0 l/m 0 min 0 min 0 W/m 0,0 km/h (0 Bft) 100,00 %
04.11.2018 00:22 2,0 C 1,7 C 1,1 C 94 % 1020,0 hPa 0,0 l/m 0 min 0 min 0 W/m 3,2 km/h (1 Bft) 95,65 %
04.11.2018 00:24 2,0 C 1,7 C 1,1 C 95 % 1020,0 hPa 0,0 l/m 0 min 0 min 0 W/m 6,4 km/h (2 Bft) 100,00 %
04.11.2018 00:26 2,0 C 1,7 C 1,1 C 95 % 1020,0 hPa 0,0 l/m 0 min 0 min 0 W/m 9,7 km/h (2 Bft) 100,00 %
04.11.2018 00:28 2,0 C 1,7 C 1,1 C 95 % 1020,0 hPa 0,0 l/m 0 min 0 min 0 W/m 6,4 km/h (2 Bft) 100,00 %
04.11.2018 00:30 2,1 C 1,7 C 1,1 C 95 % 1020,0 hPa 0,0 l/m 0 min 0 min 0 W/m 3,2 km/h (1 Bft) 100,00 %
04.11.2018 00:32 2,1 C 1,7 C 1,1 C 95 % 1020,0 hPa 0,0 l/m 0 min 0 min 0 W/m 6,4 km/h (2 Bft) 100,00 %
04.11.2018 00:34 2,1 C 1,7 C 1,1 C 95 % 1020,0 hPa 0,0 l/m 0 min 0 min 0 W/m 6,4 km/h (2 Bft) 100,00 %
04.11.2018 00:38 2,1 C 1,7 C 1,1 C 95 % 1019,9 hPa 0,0 l/m 0 min 0 min 0 W/m 6,4 km/h (2 Bft) 100,00 %
04.11.2018 00:40 2,1 C 1,7 C 1,1 C 95 % 1019,9 hPa 0,0 l/m 0 min 0 min 0 W/m 3,2 km/h (1 Bft) 97,87 %
04.11.2018 00:42 2,1 C 1,7 C 1,1 C 95 % 1019,8 hPa 0,0 l/m 0 min 0 min 0 W/m 6,4 km/h (2 Bft) 100,00 %
04.11.2018 00:44 2,1 C 1,7 C 1,1 C 95 % 1019,8 hPa 0,0 l/m 0 min 0 min 0 W/m 3,2 km/h (1 Bft) 100,00 %
04.11.2018 00:46 2,1 C 1,7 C 1,1 C 95 % 1019,8 hPa 0,0 l/m 0 min 0 min 0 W/m 3,2 km/h (1 Bft) 97,83 %
04.11.2018 00:48 2,1 C 1,7 C 1,1 C 95 % 1019,8 hPa 0,0 l/m 0 min 0 min 0 W/m 3,2 km/h (1 Bft) 100,00 %
04.11.2018 00:50 2,1 C 1,7 C 1,1 C 95 % 1019,6 hPa 0,0 l/m 0 min 0 min 0 W/m 0,0 km/h (0 Bft) 100,00 %
04.11.2018 00:52 2,1 C 1,7 C 1,1 C 95 % 1019,6 hPa 0,0 l/m 0 min 0 min 0 W/m 3,2 km/h (1 Bft) 100,00 %
04.11.2018 00:54 2,1 C 1,7 C 1,1 C 95 % 1019,7 hPa 0,0 l/m 0 min 0 min 0 W/m 3,2 km/h (1 Bft) 95,74 %
04.11.2018 00:56 2,1 C 1,7 C 1,1 C 95 % 1019,5 hPa 0,0 l/m 0 min 0 min 0 W/m 3,2 km/h (1 Bft) 100,00 %
04.11.2018 00:58 2,1 C 1,7 C 1,1 C 95 % 1019,5 hPa 0,0 l/m 0 min 0 min 0 W/m 3,2 km/h (1 Bft) 100,00 %
04.11.2018 01:00 2,1 C 1,7 C 1,1 C 95 % 1019,5 hPa 0,0 l/m 0 min 0 min 0 W/m 0,0 km/h (0 Bft) 100,00 %
04.11.2018 01:02 2,1 C 1,7 C 1,1 C 95 % 1019,5 hPa 0,0 l/m 0 min 0 min 0 W/m 0,0 km/h (0 Bft) 100,00 %
04.11.2018 01:04 2,1 C 1,7 C 1,1 C 95 % 1019,5 hPa 0,0 l/m 0 min 0 min 0 W/m 0,0 km/h (0 Bft) 97,87 %
04.11.2018 01:08 2,1 C 1,1 C 1,1 C 95 % 1019,4 hPa 0,0 l/m 0 min 0 min 0 W/m 3,2 km/h (1 Bft) 100,00 %
04.11.2018 01:10 2,1 C 1,7 C 1,1 C 95 % 1019,5 hPa 0,0 l/m 0 min 0 min 0 W/m 6,4 km/h (2 Bft) 97,87 %
04.11.2018 01:12 2,1 C 1,7 C 1,1 C 95 % 1019,5 hPa 0,0 l/m 0 min 0 min 0 W/m 6,4 km/h (2 Bft) 100,00 %
04.11.2018 01:14 2,1 C 1,7 C 1,1 C 95 % 1019,4 hPa 0,0 l/m 0 min 0 min 0 W/m 3,2 km/h (1 Bft) 95,74 %
04.11.2018 01:16 2,1 C 1,7 C 1,1 C 95 % 1019,4 hPa 0,0 l/m 0 min 0 min 0 W/m 3,2 km/h (1 Bft) 97,87 %
04.11.2018 01:18 2,1 C 1,7 C 1,1 C 95 % 1019,3 hPa 0,0 l/m 0 min 0 min 0 W/m 6,4 km/h (2 Bft) 95,74 %
04.11.2018 01:20 2,1 C 1,7 C 1,1 C 95 % 1019,3 hPa 0,0 l/m 0 min 0 min 0 W/m 3,2 km/h (1 Bft) 95,65 %
04.11.2018 01:22 2,0 C 1,7 C 1,1 C 95 % 1019,3 hPa 0,0 l/m 0 min 0 min 0 W/m 3,2 km/h (1 Bft) 95,74 %
04.11.2018 01:24 2,0 C 1,7 C 1,1 C 95 % 1019,2 hPa 0,0 l/m 0 min 0 min 0 W/m 3,2 km/h (1 Bft) 95,74 %
04.11.2018 01:26 2,0 C 1,7 C 1,1 C 94 % 1019,2 hPa 0,0 l/m 0 min 0 min 0 W/m 0,0 km/h (0 Bft) 93,62 %
04.11.2018 01:28 2,1 C 1,7 C 1,1 C 94 % 1019,1 hPa 0,0 l/m 0 min 0 min 0 W/m 0,0 km/h (0 Bft) 95,74 %
04.11.2018 01:30 2,1 C 1,7 C 1,1 C 94 % 1019,1 hPa 0,0 l/m 0 min 0 min 0 W/m 0,0 km/h (0 Bft) 97,87 %
04.11.2018 01:32 2,1 C 1,7 C 1,1 C 94 % 1019,1 hPa 0,0 l/m 0 min 0 min 0 W/m 0,0 km/h (0 Bft) 95,65 %
04.11.2018 01:34 2,0 C 1,7 C 1,1 C 94 % 1019,1 hPa 0,0 l/m 0 min 0 min 0 W/m 3,2 km/h (1 Bft) 95,74 %
04.11.2018 01:38 2,0 C 1,7 C 1,1 C 94 % 1019,0 hPa 0,0 l/m 0 min 0 min 0 W/m 0,0 km/h (0 Bft) 96,81 %
04.11.2018 01:40 2,0 C 1,7 C 1,1 C 94 % 1019,0 hPa 0,0 l/m 0 min 0 min 0 W/m 3,2 km/h (1 Bft) 95,74 %
04.11.2018 01:42 2,0 C 1,7 C 1,1 C 94 % 1019,0 hPa 0,0 l/m 0 min 0 min 0 W/m 0,0 km/h (0 Bft) 93,62 %
04.11.2018 01:44 2,0 C 1,7 C 1,1 C 94 % 1019,0 hPa 0,0 l/m 0 min 0 min 0 W/m 0,0 km/h (0 Bft) 93,48 %
04.11.2018 01:46 2,0 C 1,7 C 1,1 C 94 % 1019,0 hPa 0,0 l/m 0 min 0 min 0 W/m 0,0 km/h (0 Bft) 91,49 %
04.11.2018 01:48 2,0 C 1,1 C 1,1 C 94 % 1019,0 hPa 0,0 l/m 0 min 0 min 0 W/m 0,0 km/h (0 Bft) 93,62 %
04.11.2018 01:50 2,0 C 1,1 C 1,1 C 94 % 1018,9 hPa 0,0 l/m 0 min 0 min 0 W/m 0,0 km/h (0 Bft) 93,62 %
04.11.2018 01:52 2,0 C 1,1 C 1,1 C 94 % 1019,0 hPa 0,0 l/m 0 min 0 min 0 W/m 0,0 km/h (0 Bft) 95,74 %
04.11.2018 01:54 2,0 C 1,1 C 1,1 C 94 % 1019,0 hPa 0,0 l/m 0 min 0 min 0 W/m 0,0 km/h (0 Bft) 95,74 %
04.11.2018 01:56 2,0 C 1,1 C 0,6 C 94 % 1018,9 hPa 0,0 l/m 0 min 0 min 0 W/m 0,0 km/h (0 Bft) 95,65 %
04.11.2018 01:58 1,9 C 1,1 C 0,6 C 94 % 1019,0 hPa 0,0 l/m 0 min 0 min 0 W/m 3,2 km/h (1 Bft) 93,62 %
04.11.2018 02:00 1,9 C 1,1 C 1,1 C 94 % 1018,9 hPa 0,0 l/m 0 min 0 min 0 W/m 0,0 km/h (0 Bft) 97,87 %
04.11.2018 02:02 1,9 C 1,1 C 1,1 C 94 % 1018,9 hPa 0,0 l/m 0 min 0 min 0 W/m 3,2 km/h (1 Bft) 95,74 %
04.11.2018 02:04 1,9 C 1,7 C 1,1 C 94 % 1018,9 hPa 0,0 l/m 0 min 0 min 0 W/m 3,2 km/h (1 Bft) 97,87 %
04.11.2018 02:08 1,9 C 1,7 C 1,1 C 94 % 1018,9 hPa 0,0 l/m 0 min 0 min 0 W/m 6,4 km/h (2 Bft) 97,85 %
04.11.2018 02:10 1,9 C 1,7 C 1,1 C 94 % 1018,9 hPa 0,0 l/m 0 min 0 min 0 W/m 3,2 km/h (1 Bft) 95,74 %
04.11.2018 02:12 1,9 C 1,7 C 1,1 C 94 % 1018,8 hPa 0,0 l/m 0 min 0 min 0 W/m 3,2 km/h (1 Bft) 97,87 %
04.11.2018 02:14 1,9 C 1,7 C 1,1 C 94 % 1018,8 hPa 0,0 l/m 0 min 0 min 0 W/m 0,0 km/h (0 Bft) 100,00 %
04.11.2018 02:16 1,9 C 1,1 C 1,1 C 94 % 1018,7 hPa 0,0 l/m 0 min 0 min 0 W/m 0,0 km/h (0 Bft) 100,00 %
04.11.2018 02:18 1,9 C 1,1 C 1,1 C 94 % 1018,8 hPa 0,0 l/m 0 min 0 min 0 W/m 3,2 km/h (1 Bft) 97,83 %
04.11.2018 02:20 1,9 C 1,1 C 0,6 C 94 % 1018,7 hPa 0,0 l/m 0 min 0 min 0 W/m 0,0 km/h (0 Bft) 97,87 %
04.11.2018 02:22 1,9 C 1,1 C 0,6 C 94 % 1018,8 hPa 0,0 l/m 0 min 0 min 0 W/m 0,0 km/h (0 Bft) 100,00 %
04.11.2018 02:24 1,9 C 1,1 C 0,6 C 94 % 1018,7 hPa 0,0 l/m 0 min 0 min 0 W/m 0,0 km/h (0 Bft) 100,00 %
04.11.2018 02:26 1,9 C 1,1 C 0,6 C 94 % 1018,7 hPa 0,0 l/m 0 min 0 min 0 W/m 0,0 km/h (0 Bft) 100,00 %
04.11.2018 02:28 1,9 C 1,1 C 0,6 C 94 % 1018,7 hPa 0,0 l/m 0 min 0 min 0 W/m 3,2 km/h (1 Bft) 100,00 %
04.11.2018 02:30 1,9 C 1,1 C 1,1 C 94 % 1018,7 hPa 0,0 l/m 0 min 0 min 0 W/m 0,0 km/h (0 Bft) 100,00 %
04.11.2018 02:32 1,9 C 1,1 C 1,1 C 94 % 1018,7 hPa 0,0 l/m 0 min 0 min 0 W/m 0,0 km/h (0 Bft) 100,00 %
04.11.2018 02:34 1,9 C 1,1 C 1,1 C 94 % 1018,6 hPa 0,0 l/m 0 min 0 min 0 W/m 0,0 km/h (0 Bft) 97,87 %
04.11.2018 02:38 1,9 C 1,7 C 1,1 C 94 % 1018,6 hPa 0,0 l/m 0 min 0 min 0 W/m 6,4 km/h (2 Bft) 98,94 %
04.11.2018 02:40 1,9 C 1,7 C 1,1 C 94 % 1018,5 hPa 0,0 l/m 0 min 0 min 0 W/m 3,2 km/h (1 Bft) 100,00 %
04.11.2018 02:42 1,9 C 1,7 C 1,1 C 94 % 1018,5 hPa 0,0 l/m 0 min 0 min 0 W/m 6,4 km/h (2 Bft) 100,00 %
04.11.2018 02:44 2,0 C 1,7 C 1,1 C 94 % 1018,4 hPa 0,0 l/m 0 min 0 min 0 W/m 6,4 km/h (2 Bft) 100,00 %
04.11.2018 02:46 2,0 C 1,7 C 1,1 C 95 % 1018,4 hPa 0,0 l/m 0 min 0 min 0 W/m 0,0 km/h (0 Bft) 100,00 %
04.11.2018 02:48 2,0 C 1,7 C 1,1 C 95 % 1018,4 hPa 0,0 l/m 0 min 0 min 0 W/m 0,0 km/h (0 Bft) 100,00 %
04.11.2018 02:50 2,0 C 1,7 C 1,1 C 95 % 1018,3 hPa 0,0 l/m 0 min 0 min 0 W/m 0,0 km/h (0 Bft) 100,00 %
04.11.2018 02:52 2,0 C 1,7 C 1,1 C 95 % 1018,3 hPa 0,0 l/m 0 min 0 min 0 W/m 0,0 km/h (0 Bft) 100,00 %
04.11.2018 02:54 2,1 C 1,7 C 1,1 C 95 % 1018,4 hPa 0,0 l/m 0 min 0 min 0 W/m 0,0 km/h (0 Bft) 100,00 %
04.11.2018 02:56 2,1 C 1,7 C 1,1 C 95 % 1018,3 hPa 0,0 l/m 0 min 0 min 0 W/m 0,0 km/h (0 Bft) 97,87 %
04.11.2018 02:58 2,1 C 1,7 C 1,1 C 95 % 1018,3 hPa 0,0 l/m 0 min 0 min 0 W/m 0,0 km/h (0 Bft) 97,87 %
04.11.2018 03:00 2,1 C 1,7 C 1,1 C 95 % 1018,2 hPa 0,0 l/m 0 min 0 min 0 W/m 0,0 km/h (0 Bft) 97,87 %
04.11.2018 03:02 2,1 C 1,7 C 1,1 C 95 % 1018,2 hPa 0,0 l/m 0 min 0 min 0 W/m 0,0 km/h (0 Bft) 97,87 %
04.11.2018 03:04 2,1 C 1,7 C 1,1 C 95 % 1018,2 hPa 0,0 l/m 0 min 0 min 0 W/m 0,0 km/h (0 Bft) 97,87 %
04.11.2018 03:08 2,1 C 1,7 C 1,1 C 95 % 1018,1 hPa 0,0 l/m 0 min 0 min 0 W/m 0,0 km/h (0 Bft) 97,85 %
04.11.2018 03:10 2,1 C 1,7 C 1,1 C 95 % 1017,9 hPa 0,0 l/m 0 min 0 min 0 W/m 0,0 km/h (0 Bft) 97,87 %
04.11.2018 03:12 2,1 C 1,7 C 1,1 C 95 % 1017,9 hPa 0,0 l/m 0 min 0 min 0 W/m 0,0 km/h (0 Bft) 95,74 %
04.11.2018 03:14 2,1 C 1,7 C 1,1 C 95 % 1017,9 hPa 0,0 l/m 0 min 0 min 0 W/m 0,0 km/h (0 Bft) 95,74 %
04.11.2018 03:16 2,1 C 1,7 C 1,1 C 95 % 1017,9 hPa 0,0 l/m 0 min 0 min 0 W/m 0,0 km/h (0 Bft) 97,83 %
04.11.2018 03:18 2,1 C 1,7 C 1,1 C 95 % 1018,0 hPa 0,0 l/m 0 min 0 min 0 W/m 0,0 km/h (0 Bft) 93,62 %
04.11.2018 03:20 2,1 C 1,7 C 1,1 C 95 % 1017,9 hPa 0,0 l/m 0 min 0 min 0 W/m 0,0 km/h (0 Bft) 97,87 %
04.11.2018 03:22 2,1 C 1,7 C 1,1 C 95 % 1017,8 hPa 0,0 l/m 0 min 0 min 0 W/m 0,0 km/h (0 Bft) 97,87 %
04.11.2018 03:24 2,1 C 1,7 C 1,1 C 95 % 1017,8 hPa 0,0 l/m 0 min 0 min 0 W/m 0,0 km/h (0 Bft) 97,87 %
04.11.2018 03:26 2,1 C 1,7 C 1,1 C 95 % 1017,8 hPa 0,0 l/m 0 min 0 min 0 W/m 0,0 km/h (0 Bft) 97,87 %
04.11.2018 03:28 2,1 C 1,7 C 1,1 C 95 % 1017,7 hPa 0,0 l/m 0 min 0 min 0 W/m 0,0 km/h (0 Bft) 97,83 %
04.11.2018 03:30 2,1 C 1,7 C 1,1 C 95 % 1017,7 hPa 0,0 l/m 0 min 0 min 0 W/m 0,0 km/h (0 Bft) 97,87 %
04.11.2018 03:32 2,2 C 1,7 C 1,1 C 95 % 1017,7 hPa 0,0 l/m 0 min 0 min 0 W/m 0,0 km/h (0 Bft) 95,74 %
04.11.2018 03:34 2,2 C 1,7 C 1,1 C 95 % 1017,7 hPa 0,0 l/m 0 min 0 min 0 W/m 0,0 km/h (0 Bft) 97,87 %
04.11.2018 03:38 2,2 C 1,7 C 1,1 C 95 % 1017,6 hPa 0,0 l/m 0 min 0 min 0 W/m 3,2 km/h (1 Bft) 97,87 %
04.11.2018 03:40 2,2 C 2,2 C 1,1 C 95 % 1017,6 hPa 0,0 l/m 0 min 0 min 0 W/m 9,7 km/h (2 Bft) 97,87 %
04.11.2018 03:42 2,2 C 2,2 C 1,7 C 95 % 1017,5 hPa 0,0 l/m 0 min 0 min 0 W/m 6,4 km/h (2 Bft) 95,65 %
04.11.2018 03:44 2,3 C 2,2 C 1,7 C 95 % 1017,5 hPa 0,0 l/m 0 min 0 min 0 W/m 6,4 km/h (2 Bft) 91,49 %
04.11.2018 03:46 2,3 C 2,2 C 1,7 C 95 % 1017,5 hPa 0,0 l/m 0 min 0 min 0 W/m 3,2 km/h (1 Bft) 95,74 %
04.11.2018 03:48 2,3 C 2,2 C 1,7 C 95 % 1017,6 hPa 0,0 l/m 0 min 0 min 0 W/m 3,2 km/h (1 Bft) 95,74 %
04.11.2018 03:50 2,3 C 2,2 C 1,7 C 95 % 1017,5 hPa 0,0 l/m 0 min 0 min 0 W/m 3,2 km/h (1 Bft) 95,74 %
04.11.2018 03:52 2,3 C 2,2 C 1,7 C 95 % 1017,5 hPa 0,0 l/m 0 min 0 min 0 W/m 0,0 km/h (0 Bft) 97,83 %
04.11.2018 03:54 2,3 C 2,2 C 1,7 C 95 % 1017,5 hPa 0,0 l/m 0 min 0 min 0 W/m 3,2 km/h (1 Bft) 95,74 %
04.11.2018 03:56 2,3 C 2,2 C 1,7 C 95 % 1017,5 hPa 0,0 l/m 0 min 0 min 0 W/m 3,2 km/h (1 Bft) 95,74 %
04.11.2018 03:58 2,3 C 2,2 C 1,7 C 95 % 1017,5 hPa 0,0 l/m 0 min 0 min 0 W/m 6,4 km/h (2 Bft) 95,74 %
04.11.2018 04:00 2,3 C 2,2 C 1,7 C 95 % 1017,4 hPa 0,0 l/m 0 min 0 min 0 W/m 0,0 km/h (0 Bft) 95,74 %
04.11.2018 04:02 2,4 C 2,2 C 1,7 C 95 % 1017,4 hPa 0,0 l/m 0 min 0 min 0 W/m 6,4 km/h (2 Bft) 100,00 %
04.11.2018 04:04 2,4 C 2,2 C 1,7 C 95 % 1017,3 hPa 0,0 l/m 0 min 0 min 0 W/m 6,4 km/h (2 Bft) 97,83 %
04.11.2018 04:08 2,4 C 2,2 C 1,7 C 95 % 1017,3 hPa 0,0 l/m 0 min 0 min 0 W/m 3,2 km/h (1 Bft) 94,68 %
04.11.2018 04:10 2,4 C 2,2 C 1,7 C 95 % 1017,3 hPa 0,0 l/m 0 min 0 min 0 W/m 3,2 km/h (1 Bft) 95,74 %
04.11.2018 04:12 2,4 C 2,2 C 1,7 C 95 % 1017,4 hPa 0,0 l/m 0 min 0 min 0 W/m 3,2 km/h (1 Bft) 93,62 %
04.11.2018 04:14 2,4 C 2,2 C 1,7 C 95 % 1017,3 hPa 0,0 l/m 0 min 0 min 0 W/m 3,2 km/h (1 Bft) 95,74 %
04.11.2018 04:16 2,4 C 2,2 C 1,7 C 95 % 1017,2 hPa 0,0 l/m 0 min 0 min 0 W/m 3,2 km/h (1 Bft) 91,30 %
04.11.2018 04:18 2,5 C 2,2 C 1,7 C 95 % 1017,2 hPa 0,0 l/m 0 min 0 min 0 W/m 3,2 km/h (1 Bft) 95,74 %
04.11.2018 04:20 2,5 C 2,2 C 1,7 C 95 % 1017,2 hPa 0,0 l/m 0 min 0 min 0 W/m 3,2 km/h (1 Bft) 95,74 %
04.11.2018 04:22 2,5 C 2,2 C 1,7 C 95 % 1017,2 hPa 0,0 l/m 0 min 0 min 0 W/m 6,4 km/h (2 Bft) 95,92 %
04.11.2018 04:24 2,6 C 2,2 C 1,7 C 95 % 1017,2 hPa 0,0 l/m 0 min 0 min 0 W/m 3,2 km/h (1 Bft) 93,62 %
04.11.2018 04:26 2,6 C 2,2 C 1,7 C 95 % 1017,1 hPa 0,0 l/m 0 min 0 min 0 W/m 0,0 km/h (0 Bft) 93,62 %
04.11.2018 04:28 2,6 C 2,2 C 1,7 C 95 % 1017,1 hPa 0,0 l/m 0 min 0 min 0 W/m 3,2 km/h (1 Bft) 95,65 %
04.11.2018 04:30 2,6 C 2,8 C 1,7 C 95 % 1017,1 hPa 0,0 l/m 0 min 0 min 0 W/m 3,2 km/h (1 Bft) 95,74 %
04.11.2018 04:32 2,6 C 2,8 C 1,7 C 95 % 1017,2 hPa 0,0 l/m 0 min 0 min 0 W/m 0,0 km/h (0 Bft) 95,74 %
04.11.2018 04:34 2,7 C 2,8 C 2,2 C 95 % 1017,1 hPa 0,0 l/m 0 min 0 min 0 W/m 3,2 km/h (1 Bft) 95,74 %
04.11.2018 04:38 2,7 C 2,8 C 2,2 C 95 % 1017,0 hPa 0,0 l/m 0 min 0 min 0 W/m 0,0 km/h (0 Bft) 96,81 %
04.11.2018 04:40 2,7 C 2,8 C 2,2 C 96 % 1017,0 hPa 0,0 l/m 0 min 0 min 0 W/m 0,0 km/h (0 Bft) 97,83 %
04.11.2018 04:42 2,7 C 2,8 C 2,2 C 96 % 1017,0 hPa 0,0 l/m 0 min 0 min 0 W/m 0,0 km/h (0 Bft) 97,87 %
04.11.2018 04:44 2,7 C 2,8 C 2,2 C 95 % 1017,0 hPa 0,0 l/m 0 min 0 min 0 W/m 3,2 km/h (1 Bft) 97,87 %
04.11.2018 04:46 2,8 C 2,8 C 2,2 C 95 % 1017,1 hPa 0,0 l/m 0 min 0 min 0 W/m 3,2 km/h (1 Bft) 97,87 %
04.11.2018 04:48 2,8 C 2,8 C 2,2 C 95 % 1017,1 hPa 0,0 l/m 0 min 0 min 0 W/m 3,2 km/h (1 Bft) 97,87 %
04.11.2018 04:50 2,8 C 2,8 C 2,2 C 96 % 1017,1 hPa 0,0 l/m 0 min 0 min 0 W/m 3,2 km/h (1 Bft) 97,87 %
04.11.2018 04:52 2,8 C 2,8 C 2,2 C 96 % 1017,1 hPa 0,0 l/m 0 min 0 min 0 W/m 0,0 km/h (0 Bft) 97,83 %
04.11.2018 04:54 2,8 C 2,8 C 2,2 C 96 % 1017,1 hPa 0,0 l/m 0 min 0 min 0 W/m 3,2 km/h (1 Bft) 95,74 %
04.11.2018 04:56 2,8 C 2,8 C 2,2 C 96 % 1017,1 hPa 0,0 l/m 0 min 0 min 0 W/m 0,0 km/h (0 Bft) 100,00 %
04.11.2018 04:58 2,9 C 2,8 C 2,2 C 96 % 1017,1 hPa 0,0 l/m 0 min 0 min 0 W/m 3,2 km/h (1 Bft) 100,00 %
04.11.2018 05:00 2,9 C 2,8 C 2,2 C 96 % 1017,1 hPa 0,0 l/m 0 min 0 min 0 W/m 3,2 km/h (1 Bft) 93,62 %
04.11.2018 05:02 2,9 C 2,8 C 2,2 C 96 % 1017,1 hPa 0,0 l/m 0 min 0 min 0 W/m 6,4 km/h (2 Bft) 93,62 %
04.11.2018 05:04 2,9 C 2,8 C 2,2 C 96 % 1017,1 hPa 0,0 l/m 0 min 0 min 0 W/m 3,2 km/h (1 Bft) 100,00 %
04.11.2018 05:05 2,9 C 2,8 C 2,2 C 96 % 1017,1 hPa 0,0 l/m 0 min 0 min 0 W/m 6,4 km/h (2 Bft) 100,00 %
04.11.2018 05:10 3,1 C 2,8 C 2,2 C 96 % 1017,0 hPa 0,0 l/m 0 min 0 min 0 W/m 9,7 km/h (2 Bft) 100,00 %
04.11.2018 05:12 3,1 C 2,8 C 2,2 C 96 % 1017,0 hPa 0,0 l/m 0 min 0 min 0 W/m 3,2 km/h (1 Bft) 90,91 %
04.11.2018 05:14 3,1 C 2,8 C 2,2 C 96 % 1017,0 hPa 0,0 l/m 0 min 0 min 0 W/m 0,0 km/h (0 Bft) 95,74 %
04.11.2018 05:16 3,1 C 2,8 C 2,2 C 96 % 1017,1 hPa 0,0 l/m 0 min 0 min 0 W/m 6,4 km/h (2 Bft) 97,14 %
04.11.2018 05:18 3,1 C 2,8 C 2,2 C 96 % 1017,1 hPa 0,0 l/m 0 min 0 min 0 W/m 9,7 km/h (2 Bft) 98,21 %
04.11.2018 05:20 3,2 C 2,8 C 2,2 C 96 % 1017,0 hPa 0,0 l/m 0 min 0 min 0 W/m 3,2 km/h (1 Bft) 100,00 %
04.11.2018 05:22 3,2 C 2,8 C 2,2 C 96 % 1017,0 hPa 0,0 l/m 0 min 0 min 0 W/m 6,4 km/h (2 Bft) 93,62 %
04.11.2018 05:24 3,2 C 2,8 C 2,2 C 96 % 1017,1 hPa 0,0 l/m 0 min 0 min 0 W/m 9,7 km/h (2 Bft) 97,83 %
04.11.2018 05:26 3,2 C 2,8 C 2,2 C 96 % 1017,0 hPa 0,0 l/m 0 min 0 min 0 W/m 6,4 km/h (2 Bft) 98,00 %
04.11.2018 05:28 3,2 C 2,8 C 2,2 C 96 % 1017,0 hPa 0,0 l/m 0 min 0 min 0 W/m 6,4 km/h (2 Bft) 100,00 %
04.11.2018 05:30 3,2 C 2,8 C 2,2 C 96 % 1017,0 hPa 0,0 l/m 0 min 0 min 0 W/m 3,2 km/h (1 Bft) 96,00 %
04.11.2018 05:32 3,2 C 2,8 C 2,2 C 96 % 1017,0 hPa 0,0 l/m 0 min 0 min 0 W/m 9,7 km/h (2 Bft) 100,00 %
04.11.2018 05:34 3,2 C 2,8 C 2,2 C 96 % 1017,0 hPa 0,0 l/m 0 min 0 min 0 W/m 6,4 km/h (2 Bft) 100,00 %
04.11.2018 05:38 3,2 C 2,8 C 2,2 C 96 % 1017,0 hPa 0,0 l/m 0 min 0 min 0 W/m 6,4 km/h (2 Bft) 98,82 %
04.11.2018 05:40 3,2 C 2,8 C 2,2 C 96 % 1017,0 hPa 0,0 l/m 0 min 0 min 0 W/m 3,2 km/h (1 Bft) 100,00 %
04.11.2018 05:42 3,2 C 2,8 C 2,2 C 96 % 1016,9 hPa 0,0 l/m 0 min 0 min 0 W/m 3,2 km/h (1 Bft) 100,00 %
04.11.2018 05:44 3,2 C 2,8 C 2,2 C 96 % 1016,9 hPa 0,0 l/m 0 min 0 min 0 W/m 6,4 km/h (2 Bft) 100,00 %
04.11.2018 05:46 3,2 C 2,8 C 2,2 C 96 % 1016,9 hPa 0,0 l/m 0 min 0 min 0 W/m 0,0 km/h (0 Bft) 100,00 %
04.11.2018 05:48 3,2 C 2,8 C 2,2 C 96 % 1016,9 hPa 0,0 l/m 0 min 0 min 0 W/m 6,4 km/h (2 Bft) 100,00 %
04.11.2018 05:50 3,2 C 2,8 C 2,2 C 96 % 1016,9 hPa 0,0 l/m 0 min 0 min 0 W/m 6,4 km/h (2 Bft) 100,00 %
04.11.2018 05:52 3,2 C 2,8 C 2,2 C 96 % 1016,9 hPa 0,0 l/m 0 min 0 min 0 W/m 0,0 km/h (0 Bft) 100,00 %
04.11.2018 05:54 3,2 C 2,8 C 2,2 C 96 % 1016,9 hPa 0,0 l/m 0 min 0 min 0 W/m 6,4 km/h (2 Bft) 100,00 %
04.11.2018 05:56 3,2 C 2,8 C 2,2 C 96 % 1016,8 hPa 0,0 l/m 0 min 0 min 0 W/m 6,4 km/h (2 Bft) 98,00 %
04.11.2018 05:58 3,2 C 3,3 C 2,2 C 96 % 1016,8 hPa 0,0 l/m 0 min 0 min 0 W/m 0,0 km/h (0 Bft) 100,00 %
04.11.2018 06:00 3,2 C 3,3 C 2,2 C 96 % 1016,7 hPa 0,0 l/m 0 min 0 min 0 W/m 0,0 km/h (0 Bft) 100,00 %
04.11.2018 06:02 3,3 C 3,3 C 2,2 C 96 % 1016,7 hPa 0,0 l/m 0 min 0 min 0 W/m 0,0 km/h (0 Bft) 100,00 %
04.11.2018 06:04 3,3 C 3,3 C 2,2 C 96 % 1016,7 hPa 0,0 l/m 0 min 0 min 0 W/m 3,2 km/h (1 Bft) 100,00 %
04.11.2018 06:08 3,3 C 3,3 C 2,8 C 96 % 1016,7 hPa 0,0 l/m 0 min 0 min 0 W/m 3,2 km/h (1 Bft) 97,94 %
04.11.2018 06:10 3,3 C 3,3 C 2,8 C 96 % 1016,7 hPa 0,0 l/m 0 min 0 min 0 W/m 0,0 km/h (0 Bft) 97,37 %
04.11.2018 06:12 3,3 C 3,3 C 2,8 C 96 % 1016,7 hPa 0,0 l/m 0 min 0 min 0 W/m 9,7 km/h (2 Bft) 97,96 %
04.11.2018 06:14 3,4 C 3,3 C 2,8 C 96 % 1016,7 hPa 0,0 l/m 0 min 0 min 0 W/m 3,2 km/h (1 Bft) 98,00 %
04.11.2018 06:16 3,4 C 3,3 C 2,8 C 96 % 1016,7 hPa 0,0 l/m 0 min 0 min 0 W/m 6,4 km/h (2 Bft) 100,00 %
04.11.2018 06:18 3,4 C 3,3 C 2,8 C 96 % 1016,7 hPa 0,0 l/m 0 min 0 min 0 W/m 3,2 km/h (1 Bft) 100,00 %
04.11.2018 06:20 3,4 C 3,3 C 2,8 C 96 % 1016,7 hPa 0,0 l/m 0 min 0 min 0 W/m 6,4 km/h (2 Bft) 98,00 %
04.11.2018 06:22 3,5 C 3,9 C 2,8 C 96 % 1016,6 hPa 0,0 l/m 0 min 0 min 0 W/m 3,2 km/h (1 Bft) 97,87 %
04.11.2018 06:24 3,5 C 3,9 C 2,8 C 96 % 1016,6 hPa 0,0 l/m 0 min 0 min 0 W/m 6,4 km/h (2 Bft) 97,83 %
04.11.2018 06:26 3,6 C 3,9 C 3,3 C 96 % 1016,5 hPa 0,0 l/m 0 min 0 min 0 W/m 9,7 km/h (2 Bft) 98,00 %
04.11.2018 06:28 3,6 C 3,9 C 3,3 C 96 % 1016,5 hPa 0,0 l/m 0 min 0 min 0 W/m 6,4 km/h (2 Bft) 98,00 %
04.11.2018 06:30 3,7 C 3,9 C 3,3 C 96 % 1016,4 hPa 0,0 l/m 0 min 0 min 0 W/m 6,4 km/h (2 Bft) 97,37 %
04.11.2018 06:32 3,7 C 3,9 C 3,3 C 96 % 1016,4 hPa 0,0 l/m 0 min 0 min 0 W/m 9,7 km/h (2 Bft) 97,87 %
04.11.2018 06:34 3,7 C 3,9 C 2,8 C 96 % 1016,4 hPa 0,0 l/m 0 min 0 min 0 W/m 6,4 km/h (2 Bft) 97,96 %
04.11.2018 06:38 3,8 C 3,9 C 2,8 C 96 % 1016,5 hPa 0,0 l/m 0 min 0 min 0 W/m 6,4 km/h (2 Bft) 97,94 %
04.11.2018 06:40 3,8 C 3,3 C 2,8 C 96 % 1016,4 hPa 0,0 l/m 0 min 0 min 0 W/m 0,0 km/h (0 Bft) 98,00 %
04.11.2018 06:42 3,8 C 3,3 C 2,8 C 96 % 1016,4 hPa 0,0 l/m 0 min 0 min 0 W/m 3,2 km/h (1 Bft) 97,37 %
04.11.2018 06:44 3,8 C 3,3 C 2,8 C 96 % 1016,4 hPa 0,0 l/m 0 min 0 min 0 W/m 3,2 km/h (1 Bft) 96,00 %
04.11.2018 06:46 3,8 C 3,3 C 2,8 C 96 % 1016,4 hPa 0,0 l/m 0 min 0 min 0 W/m 0,0 km/h (0 Bft) 95,92 %
04.11.2018 06:48 3,9 C 3,3 C 2,8 C 96 % 1016,4 hPa 0,0 l/m 0 min 0 min 0 W/m 3,2 km/h (1 Bft) 95,74 %
04.11.2018 06:50 3,9 C 3,3 C 2,8 C 96 % 1016,4 hPa 0,0 l/m 0 min 0 min 0 W/m 3,2 km/h (1 Bft) 94,00 %
04.11.2018 06:52 3,9 C 3,3 C 2,8 C 96 % 1016,4 hPa 0,0 l/m 0 min 0 min 0 W/m 6,4 km/h (2 Bft) 93,62 %
04.11.2018 06:54 3,9 C 3,3 C 2,8 C 96 % 1016,4 hPa 0,0 l/m 0 min 0 min 0 W/m 3,2 km/h (1 Bft) 89,36 %
04.11.2018 06:56 3,9 C 3,3 C 2,8 C 96 % 1016,3 hPa 0,0 l/m 0 min 0 min 0 W/m 6,4 km/h (2 Bft) 97,37 %
04.11.2018 06:58 3,9 C 3,3 C 2,8 C 96 % 1016,3 hPa 0,0 l/m 0 min 0 min 0 W/m 3,2 km/h (1 Bft) 87,76 %
04.11.2018 07:00 3,9 C 3,3 C 2,8 C 96 % 1016,4 hPa 0,0 l/m 0 min 0 min 0 W/m 3,2 km/h (1 Bft) 92,00 %
04.11.2018 07:02 3,9 C 3,3 C 2,8 C 96 % 1016,4 hPa 0,0 l/m 0 min 0 min 0 W/m 3,2 km/h (1 Bft) 90,00 %
04.11.2018 07:04 3,9 C 3,3 C 2,8 C 96 % 1016,4 hPa 0,0 l/m 0 min 0 min 0 W/m 3,2 km/h (1 Bft) 94,74 %
04.11.2018 07:08 3,9 C 3,3 C 2,8 C 96 % 1016,4 hPa 0,0 l/m 0 min 0 min 0 W/m 3,2 km/h (1 Bft) 92,78 %
04.11.2018 07:10 3,9 C 3,3 C 2,8 C 96 % 1016,4 hPa 0,0 l/m 0 min 0 min 0 W/m 0,0 km/h (0 Bft) 89,80 %
04.11.2018 07:12 3,9 C 3,9 C 2,8 C 96 % 1016,3 hPa 0,0 l/m 0 min 0 min 0 W/m 3,2 km/h (1 Bft) 95,83 %
04.11.2018 07:14 3,9 C 3,9 C 3,3 C 96 % 1016,4 hPa 0,0 l/m 0 min 0 min 0 W/m 0,0 km/h (0 Bft) 97,14 %
04.11.2018 07:16 3,9 C 3,9 C 3,3 C 96 % 1016,3 hPa 0,0 l/m 0 min 0 min 0 W/m 0,0 km/h (0 Bft) 94,55 %
04.11.2018 07:18 3,9 C 3,9 C 3,3 C 96 % 1016,3 hPa 0,0 l/m 0 min 0 min 0 W/m 0,0 km/h (0 Bft) 94,00 %
04.11.2018 07:20 3,9 C 3,9 C 3,3 C 96 % 1016,3 hPa 0,0 l/m 0 min 0 min 0 W/m 0,0 km/h (0 Bft) 93,62 %
04.11.2018 07:22 3,9 C 3,9 C 3,3 C 96 % 1016,3 hPa 0,0 l/m 0 min 0 min 0 W/m 3,2 km/h (1 Bft) 95,74 %
04.11.2018 07:24 3,9 C 3,9 C 3,3 C 96 % 1016,3 hPa 0,0 l/m 0 min 0 min 0 W/m 0,0 km/h (0 Bft) 95,74 %
04.11.2018 07:26 3,9 C 3,9 C 3,3 C 96 % 1016,2 hPa 0,0 l/m 0 min 0 min 0 W/m 3,2 km/h (1 Bft) 94,29 %
04.11.2018 07:28 3,9 C 3,9 C 3,3 C 96 % 1016,2 hPa 0,0 l/m 0 min 0 min 0 W/m 3,2 km/h (1 Bft) 94,55 %
04.11.2018 07:30 4,0 C 3,9 C 3,3 C 96 % 1016,3 hPa 0,0 l/m 0 min 0 min 0 W/m 0,0 km/h (0 Bft) 96,00 %
04.11.2018 07:32 4,0 C 3,9 C 3,3 C 96 % 1016,3 hPa 0,0 l/m 0 min 0 min 0 W/m 0,0 km/h (0 Bft) 93,62 %
04.11.2018 07:34 4,0 C 3,9 C 3,3 C 96 % 1016,3 hPa 0,0 l/m 0 min 0 min 0 W/m 0,0 km/h (0 Bft) 94,29 %
04.11.2018 07:38 4,0 C 3,9 C 3,3 C 96 % 1016,3 hPa 0,0 l/m 0 min 0 min 0 W/m 0,0 km/h (0 Bft) 96,08 %
04.11.2018 07:40 4,0 C 3,9 C 3,3 C 96 % 1016,3 hPa 0,0 l/m 0 min 0 min 0 W/m 3,2 km/h (1 Bft) 98,00 %
04.11.2018 07:42 4,1 C 3,9 C 3,3 C 96 % 1016,3 hPa 0,0 l/m 0 min 0 min 0 W/m 0,0 km/h (0 Bft) 95,74 %
04.11.2018 07:44 4,1 C 3,9 C 3,3 C 96 % 1016,4 hPa 0,0 l/m 0 min 0 min 5 W/m 0,0 km/h (0 Bft) 97,14 %
04.11.2018 07:46 4,1 C 3,9 C 3,3 C 96 % 1016,4 hPa 0,0 l/m 0 min 0 min 5 W/m 0,0 km/h (0 Bft) 94,55 %
04.11.2018 07:48 4,1 C 4,4 C 3,3 C 96 % 1016,5 hPa 0,0 l/m 0 min 0 min 5 W/m 3,2 km/h (1 Bft) 100,00 %
04.11.2018 07:50 4,1 C 4,4 C 3,3 C 96 % 1016,5 hPa 0,0 l/m 0 min 0 min 6 W/m 3,2 km/h (1 Bft) 97,87 %
04.11.2018 07:52 4,2 C 4,4 C 3,3 C 96 % 1016,5 hPa 0,0 l/m 0 min 0 min 7 W/m 3,2 km/h (1 Bft) 97,87 %
04.11.2018 07:54 4,2 C 4,4 C 3,9 C 96 % 1016,5 hPa 0,0 l/m 0 min 0 min 7 W/m 3,2 km/h (1 Bft) 100,00 %
04.11.2018 07:56 4,2 C 4,4 C 3,9 C 96 % 1016,4 hPa 0,0 l/m 0 min 0 min 8 W/m 0,0 km/h (0 Bft) 100,00 %
04.11.2018 07:58 4,3 C 4,4 C 3,9 C 96 % 1016,4 hPa 0,0 l/m 0 min 0 min 9 W/m 3,2 km/h (1 Bft) 100,00 %
04.11.2018 08:00 4,3 C 4,4 C 3,9 C 96 % 1016,5 hPa 0,0 l/m 0 min 0 min 10 W/m 3,2 km/h (1 Bft) 98,00 %
04.11.2018 08:02 4,3 C 4,4 C 3,9 C 96 % 1016,4 hPa 0,0 l/m 0 min 0 min 11 W/m 0,0 km/h (0 Bft) 100,00 %
04.11.2018 08:04 4,4 C 5,0 C 3,9 C 96 % 1016,4 hPa 0,0 l/m 0 min 0 min 12 W/m 3,2 km/h (1 Bft) 100,00 %
04.11.2018 08:08 4,5 C 5,0 C 3,9 C 96 % 1016,4 hPa 0,0 l/m 0 min 0 min 14 W/m 6,4 km/h (2 Bft) 98,02 %
04.11.2018 08:10 4,6 C 5,0 C 4,4 C 96 % 1016,4 hPa 0,0 l/m 0 min 0 min 14 W/m 3,2 km/h (1 Bft) 100,00 %
04.11.2018 08:12 4,6 C 5,0 C 4,4 C 96 % 1016,3 hPa 0,0 l/m 0 min 0 min 15 W/m 3,2 km/h (1 Bft) 100,00 %
04.11.2018 08:14 4,7 C 5,0 C 4,4 C 96 % 1016,3 hPa 0,0 l/m 0 min 0 min 17 W/m 9,7 km/h (2 Bft) 100,00 %
04.11.2018 08:16 4,7 C 5,0 C 4,4 C 96 % 1016,4 hPa 0,0 l/m 0 min 0 min 18 W/m 6,4 km/h (2 Bft) 96,36 %
04.11.2018 08:18 4,8 C 5,0 C 4,4 C 96 % 1016,3 hPa 0,0 l/m 0 min 0 min 18 W/m 6,4 km/h (2 Bft) 96,00 %
04.11.2018 08:20 4,8 C 5,0 C 4,4 C 96 % 1016,4 hPa 0,0 l/m 0 min 0 min 19 W/m 6,4 km/h (2 Bft) 100,00 %
04.11.2018 08:22 4,8 C 5,0 C 4,4 C 96 % 1016,4 hPa 0,0 l/m 0 min 0 min 21 W/m 3,2 km/h (1 Bft) 94,29 %
04.11.2018 08:24 4,9 C 5,0 C 4,4 C 96 % 1016,4 hPa 0,0 l/m 0 min 0 min 21 W/m 6,4 km/h (2 Bft) 100,00 %
04.11.2018 08:26 4,9 C 5,6 C 4,4 C 96 % 1016,4 hPa 0,0 l/m 0 min 0 min 24 W/m 3,2 km/h (1 Bft) 100,00 %
04.11.2018 08:28 5,0 C 5,6 C 4,4 C 96 % 1016,5 hPa 0,0 l/m 0 min 0 min 25 W/m 9,7 km/h (2 Bft) 100,00 %
04.11.2018 08:30 5,0 C 5,6 C 4,4 C 97 % 1016,4 hPa 0,0 l/m 0 min 0 min 25 W/m 9,7 km/h (2 Bft) 100,00 %
04.11.2018 08:32 5,1 C 5,6 C 4,4 C 97 % 1016,4 hPa 0,0 l/m 0 min 0 min 26 W/m 6,4 km/h (2 Bft) 100,00 %
04.11.2018 08:34 5,1 C 5,6 C 5,0 C 97 % 1016,4 hPa 0,0 l/m 0 min 0 min 30 W/m 6,4 km/h (2 Bft) 100,00 %
04.11.2018 08:38 5,2 C 5,6 C 5,0 C 96 % 1016,4 hPa 0,0 l/m 0 min 0 min 30 W/m 12,9 km/h (3 Bft) 98,97 %
04.11.2018 08:40 5,3 C 5,6 C 5,0 C 96 % 1016,3 hPa 0,0 l/m 0 min 0 min 32 W/m 12,9 km/h (3 Bft) 97,87 %
04.11.2018 08:42 5,3 C 5,6 C 5,0 C 96 % 1016,3 hPa 0,0 l/m 0 min 0 min 35 W/m 9,7 km/h (2 Bft) 100,00 %
04.11.2018 08:44 5,4 C 6,1 C 5,0 C 97 % 1016,3 hPa 0,0 l/m 0 min 0 min 42 W/m 9,7 km/h (2 Bft) 98,18 %
04.11.2018 08:46 5,4 C 6,1 C 5,0 C 97 % 1016,3 hPa 0,0 l/m 0 min 0 min 47 W/m 6,4 km/h (2 Bft) 100,00 %
04.11.2018 08:48 5,4 C 6,1 C 5,0 C 97 % 1016,3 hPa 0,0 l/m 0 min 0 min 46 W/m 9,7 km/h (2 Bft) 97,92 %
04.11.2018 08:50 5,5 C 6,1 C 5,0 C 97 % 1016,2 hPa 0,0 l/m 0 min 0 min 41 W/m 6,4 km/h (2 Bft) 100,00 %
04.11.2018 08:52 5,6 C 6,1 C 5,6 C 96 % 1016,2 hPa 0,0 l/m 0 min 0 min 42 W/m 9,7 km/h (2 Bft) 97,22 %
04.11.2018 08:54 5,6 C 6,1 C 5,6 C 96 % 1016,2 hPa 0,0 l/m 0 min 0 min 54 W/m 6,4 km/h (2 Bft) 100,00 %
04.11.2018 08:56 5,7 C 6,1 C 5,6 C 96 % 1016,1 hPa 0,0 l/m 0 min 0 min 61 W/m 6,4 km/h (2 Bft) 96,36 %
04.11.2018 08:58 5,7 C 6,7 C 5,6 C 96 % 1016,1 hPa 0,0 l/m 0 min 0 min 63 W/m 9,7 km/h (2 Bft) 92,00 %
04.11.2018 09:00 5,7 C 6,7 C 5,6 C 96 % 1016,1 hPa 0,0 l/m 0 min 0 min 65 W/m 3,2 km/h (1 Bft) 97,92 %
04.11.2018 09:02 5,8 C 6,7 C 5,6 C 97 % 1016,1 hPa 0,0 l/m 0 min 0 min 69 W/m 3,2 km/h (1 Bft) 100,00 %
04.11.2018 09:04 5,8 C 6,7 C 5,6 C 97 % 1015,9 hPa 0,0 l/m 0 min 0 min 66 W/m 3,2 km/h (1 Bft) 100,00 %
04.11.2018 09:08 5,9 C 6,7 C 5,6 C 96 % 1016,0 hPa 0,0 l/m 0 min 0 min 57 W/m 9,7 km/h (2 Bft) 96,91 %
04.11.2018 09:10 5,9 C 6,7 C 5,6 C 96 % 1015,9 hPa 0,0 l/m 0 min 0 min 54 W/m 9,7 km/h (2 Bft) 95,74 %
04.11.2018 09:12 6,0 C 7,8 C 5,6 C 96 % 1015,9 hPa 0,0 l/m 0 min 0 min 93 W/m 3,2 km/h (1 Bft) 97,56 %
04.11.2018 09:14 6,1 C 8,3 C 6,1 C 96 % 1015,9 hPa 0,0 l/m 2 min 0 min 149 W/m 6,4 km/h (2 Bft) 96,00 %
04.11.2018 09:16 6,1 C 7,8 C 6,1 C 97 % 1015,9 hPa 0,0 l/m 0 min 0 min 90 W/m 9,7 km/h (2 Bft) 87,76 %
04.11.2018 09:18 6,2 C 7,8 C 6,1 C 97 % 1015,9 hPa 0,0 l/m 0 min 0 min 96 W/m 6,4 km/h (2 Bft) 85,11 %
04.11.2018 09:20 6,3 C 7,8 C 6,7 C 97 % 1015,8 hPa 0,0 l/m 0 min 0 min 97 W/m 6,4 km/h (2 Bft) 92,68 %
04.11.2018 09:22 6,3 C 7,8 C 6,7 C 96 % 1015,9 hPa 0,0 l/m 0 min 0 min 91 W/m 6,4 km/h (2 Bft) 93,88 %
04.11.2018 09:24 6,4 C 7,8 C 6,7 C 96 % 1015,9 hPa 0,0 l/m 0 min 0 min 90 W/m 6,4 km/h (2 Bft) 93,62 %
04.11.2018 09:26 6,4 C 7,8 C 6,7 C 96 % 1015,8 hPa 0,0 l/m 0 min 0 min 90 W/m 6,4 km/h (2 Bft) 96,00 %
04.11.2018 09:28 6,4 C 7,8 C 6,7 C 97 % 1015,8 hPa 0,0 l/m 0 min 0 min 90 W/m 6,4 km/h (2 Bft) 93,62 %
04.11.2018 09:30 6,5 C 7,8 C 6,7 C 96 % 1015,8 hPa 0,0 l/m 0 min 0 min 91 W/m 6,4 km/h (2 Bft) 91,43 %
04.11.2018 09:32 6,6 C 7,8 C 6,7 C 96 % 1015,8 hPa 0,0 l/m 0 min 0 min 94 W/m 6,4 km/h (2 Bft) 92,73 %
04.11.2018 09:34 6,7 C 7,8 C 6,7 C 96 % 1015,8 hPa 0,0 l/m 0 min 0 min 95 W/m 6,4 km/h (2 Bft) 94,00 %
04.11.2018 09:38 6,8 C 7,8 C 6,7 C 96 % 1015,7 hPa 0,0 l/m 0 min 0 min 88 W/m 9,7 km/h (2 Bft) 92,55 %
04.11.2018 09:40 6,8 C 7,8 C 6,7 C 96 % 1015,7 hPa 0,0 l/m 0 min 0 min 82 W/m 9,7 km/h (2 Bft) 88,57 %
04.11.2018 09:42 6,9 C 7,8 C 6,7 C 96 % 1015,8 hPa 0,0 l/m 0 min 0 min 79 W/m 6,4 km/h (2 Bft) 85,45 %
04.11.2018 09:44 6,9 C 7,8 C 7,2 C 96 % 1015,8 hPa 0,0 l/m 0 min 0 min 82 W/m 9,7 km/h (2 Bft) 90,00 %
04.11.2018 09:46 7,0 C 7,8 C 7,2 C 96 % 1015,8 hPa 0,0 l/m 0 min 0 min 83 W/m 9,7 km/h (2 Bft) 87,50 %
04.11.2018 09:48 7,1 C 7,8 C 7,2 C 96 % 1015,8 hPa 0,0 l/m 0 min 0 min 85 W/m 9,7 km/h (2 Bft) 88,57 %
04.11.2018 09:50 7,1 C 7,8 C 7,2 C 96 % 1015,7 hPa 0,0 l/m 0 min 0 min 89 W/m 9,7 km/h (2 Bft) 87,27 %
04.11.2018 09:52 7,2 C 8,3 C 7,2 C 96 % 1015,8 hPa 0,0 l/m 0 min 0 min 95 W/m 12,9 km/h (3 Bft) 89,36 %
04.11.2018 09:54 7,2 C 8,3 C 7,2 C 96 % 1015,7 hPa 0,0 l/m 0 min 0 min 98 W/m 9,7 km/h (2 Bft) 80,43 %
04.11.2018 09:56 7,3 C 8,3 C 7,2 C 96 % 1015,8 hPa 0,0 l/m 0 min 0 min 99 W/m 6,4 km/h (2 Bft) 94,00 %
04.11.2018 09:58 7,3 C 8,3 C 7,2 C 96 % 1015,7 hPa 0,0 l/m 0 min 0 min 98 W/m 16,1 km/h (3 Bft) 93,75 %
04.11.2018 10:00 7,4 C 8,3 C 7,2 C 96 % 1015,8 hPa 0,0 l/m 0 min 0 min 98 W/m 12,9 km/h (3 Bft) 94,29 %
04.11.2018 10:02 7,4 C 8,3 C 7,8 C 96 % 1015,8 hPa 0,0 l/m 0 min 0 min 95 W/m 6,4 km/h (2 Bft) 94,55 %
04.11.2018 10:04 7,6 C 8,3 C 7,8 C 96 % 1015,8 hPa 0,0 l/m 0 min 0 min 97 W/m 6,4 km/h (2 Bft) 88,00 %
04.11.2018 10:08 7,7 C 8,3 C 7,8 C 96 % 1015,8 hPa 0,0 l/m 0 min 0 min 97 W/m 12,9 km/h (3 Bft) 93,90 %
04.11.2018 10:10 7,7 C 8,3 C 7,8 C 96 % 1015,8 hPa 0,0 l/m 0 min 0 min 92 W/m 12,9 km/h (3 Bft) 92,59 %
04.11.2018 10:12 7,8 C 8,3 C 7,8 C 95 % 1015,8 hPa 0,0 l/m 0 min 0 min 95 W/m 12,9 km/h (3 Bft) 96,00 %
04.11.2018 10:14 7,8 C 8,3 C 7,8 C 95 % 1015,7 hPa 0,0 l/m 0 min 0 min 100 W/m 12,9 km/h (3 Bft) 89,58 %
04.11.2018 10:16 7,9 C 8,3 C 7,8 C 95 % 1015,7 hPa 0,0 l/m 0 min 0 min 100 W/m 12,9 km/h (3 Bft) 97,14 %
04.11.2018 10:18 7,9 C 8,3 C 7,8 C 95 % 1015,8 hPa 0,0 l/m 0 min 0 min 96 W/m 9,7 km/h (2 Bft) 94,44 %
04.11.2018 10:20 7,9 C 8,3 C 7,8 C 95 % 1015,8 hPa 0,0 l/m 0 min 0 min 90 W/m 16,1 km/h (3 Bft) 94,00 %
04.11.2018 10:22 8,0 C 8,3 C 7,8 C 94 % 1015,8 hPa 0,0 l/m 0 min 0 min 90 W/m 12,9 km/h (3 Bft) 93,62 %
04.11.2018 10:24 8,0 C 8,3 C 7,8 C 94 % 1015,7 hPa 0,0 l/m 0 min 0 min 95 W/m 9,7 km/h (2 Bft) 97,87 %
04.11.2018 10:26 8,1 C 8,3 C 7,8 C 94 % 1015,7 hPa 0,0 l/m 0 min 0 min 97 W/m 9,7 km/h (2 Bft) 89,58 %
04.11.2018 10:28 8,1 C 8,9 C 7,8 C 94 % 1015,6 hPa 0,0 l/m 0 min 0 min 104 W/m 9,7 km/h (2 Bft) 94,29 %
04.11.2018 10:30 8,2 C 8,9 C 7,8 C 94 % 1015,6 hPa 0,0 l/m 0 min 0 min 107 W/m 12,9 km/h (3 Bft) 88,89 %
04.11.2018 10:32 8,2 C 8,9 C 7,8 C 93 % 1015,6 hPa 0,0 l/m 0 min 0 min 114 W/m 9,7 km/h (2 Bft) 96,00 %
04.11.2018 10:34 8,3 C 8,9 C 7,8 C 93 % 1015,6 hPa 0,0 l/m 0 min 0 min 119 W/m 9,7 km/h (2 Bft) 87,50 %
04.11.2018 10:38 8,5 C 8,9 C 7,8 C 92 % 1015,5 hPa 0,0 l/m 0 min 0 min 115 W/m 16,1 km/h (3 Bft) 90,24 %
04.11.2018 10:40 8,6 C 8,9 C 7,8 C 92 % 1015,6 hPa 0,0 l/m 0 min 0 min 105 W/m 6,4 km/h (2 Bft) 94,44 %
04.11.2018 10:42 8,6 C 8,9 C 7,8 C 91 % 1015,5 hPa 0,0 l/m 0 min 0 min 100 W/m 12,9 km/h (3 Bft) 89,80 %
04.11.2018 10:44 8,7 C 8,9 C 7,8 C 91 % 1015,5 hPa 0,0 l/m 0 min 0 min 104 W/m 12,9 km/h (3 Bft) 90,00 %
04.11.2018 10:46 8,7 C 8,9 C 8,3 C 91 % 1015,6 hPa 0,0 l/m 0 min 0 min 109 W/m 12,9 km/h (3 Bft) 97,83 %
04.11.2018 10:48 8,7 C 8,9 C 8,3 C 90 % 1015,5 hPa 0,0 l/m 0 min 0 min 113 W/m 16,1 km/h (3 Bft) 92,86 %
04.11.2018 10:50 8,7 C 8,9 C 8,3 C 90 % 1015,6 hPa 0,0 l/m 0 min 0 min 119 W/m 16,1 km/h (3 Bft) 96,00 %
04.11.2018 10:52 8,7 C 8,9 C 8,3 C 90 % 1015,6 hPa 0,0 l/m 0 min 0 min 118 W/m 16,1 km/h (3 Bft) 95,65 %
04.11.2018 10:54 8,8 C 8,9 C 8,3 C 90 % 1015,5 hPa 0,0 l/m 0 min 0 min 114 W/m 12,9 km/h (3 Bft) 97,87 %
04.11.2018 10:56 8,8 C 9,4 C 8,3 C 90 % 1015,5 hPa 0,0 l/m 0 min 0 min 115 W/m 9,7 km/h (2 Bft) 92,00 %
04.11.2018 10:58 8,8 C 8,9 C 8,3 C 90 % 1015,5 hPa 0,0 l/m 0 min 0 min 115 W/m 12,9 km/h (3 Bft) 91,30 %
04.11.2018 11:00 8,9 C 9,4 C 8,3 C 90 % 1015,5 hPa 0,0 l/m 0 min 0 min 114 W/m 9,7 km/h (2 Bft) 92,86 %
04.11.2018 11:02 8,9 C 9,4 C 8,3 C 90 % 1015,4 hPa 0,0 l/m 0 min 0 min 122 W/m 9,7 km/h (2 Bft) 92,00 %
04.11.2018 11:04 9,0 C 9,4 C 8,3 C 90 % 1015,4 hPa 0,0 l/m 0 min 0 min 132 W/m 12,9 km/h (3 Bft) 93,88 %
04.11.2018 11:08 9,1 C 9,4 C 8,9 C 89 % 1015,4 hPa 0,0 l/m 0 min 0 min 151 W/m 16,1 km/h (3 Bft) 95,74 %
04.11.2018 11:10 9,2 C 10,0 C 8,9 C 89 % 1015,3 hPa 0,0 l/m 0 min 0 min 148 W/m 9,7 km/h (2 Bft) 97,56 %
04.11.2018 11:12 9,2 C 10,0 C 8,9 C 89 % 1015,3 hPa 0,0 l/m 0 min 0 min 140 W/m 9,7 km/h (2 Bft) 98,00 %
04.11.2018 11:14 9,3 C 10,0 C 8,9 C 89 % 1015,4 hPa 0,0 l/m 0 min 0 min 139 W/m 9,7 km/h (2 Bft) 95,92 %
04.11.2018 11:16 9,4 C 10,0 C 8,9 C 89 % 1015,5 hPa 0,0 l/m 0 min 0 min 141 W/m 19,3 km/h (3 Bft) 89,36 %
04.11.2018 11:18 9,4 C 10,0 C 8,9 C 89 % 1015,4 hPa 0,0 l/m 0 min 0 min 142 W/m 9,7 km/h (2 Bft) 100,00 %
04.11.2018 11:20 9,5 C 10,0 C 8,9 C 89 % 1015,4 hPa 0,0 l/m 0 min 0 min 146 W/m 12,9 km/h (3 Bft) 94,00 %
04.11.2018 11:22 9,6 C 10,0 C 9,4 C 88 % 1015,3 hPa 0,0 l/m 0 min 0 min 150 W/m 16,1 km/h (3 Bft) 100,00 %
04.11.2018 11:24 9,6 C 10,0 C 9,4 C 88 % 1015,3 hPa 0,0 l/m 0 min 0 min 151 W/m 22,5 km/h (4 Bft) 100,00 %
04.11.2018 11:26 9,6 C 10,0 C 8,9 C 88 % 1015,3 hPa 0,0 l/m 0 min 0 min 142 W/m 16,1 km/h (3 Bft) 100,00 %
04.11.2018 11:28 9,6 C 10,0 C 8,9 C 88 % 1015,3 hPa 0,0 l/m 0 min 0 min 136 W/m 12,9 km/h (3 Bft) 97,56 %
04.11.2018 11:30 9,6 C 10,0 C 8,9 C 88 % 1015,2 hPa 0,0 l/m 0 min 0 min 141 W/m 9,7 km/h (2 Bft) 98,00 %
04.11.2018 11:32 9,6 C 10,0 C 9,4 C 88 % 1015,2 hPa 0,0 l/m 0 min 0 min 147 W/m 12,9 km/h (3 Bft) 100,00 %
04.11.2018 11:34 9,7 C 10,0 C 9,4 C 88 % 1015,1 hPa 0,0 l/m 0 min 0 min 154 W/m 12,9 km/h (3 Bft) 97,83 %
04.11.2018 11:38 9,7 C 10,0 C 9,4 C 87 % 1015,1 hPa 0,0 l/m 0 min 0 min 148 W/m 12,9 km/h (3 Bft) 100,00 %
04.11.2018 11:40 9,7 C 10,0 C 9,4 C 88 % 1015,1 hPa 0,0 l/m 0 min 0 min 141 W/m 12,9 km/h (3 Bft) 100,00 %
04.11.2018 11:42 9,8 C 10,0 C 9,4 C 87 % 1015,1 hPa 0,0 l/m 0 min 0 min 140 W/m 12,9 km/h (3 Bft) 100,00 %
04.11.2018 11:44 9,8 C 10,0 C 9,4 C 88 % 1015,0 hPa 0,0 l/m 0 min 0 min 134 W/m 16,1 km/h (3 Bft) 100,00 %
04.11.2018 11:46 9,8 C 10,0 C 9,4 C 88 % 1015,1 hPa 0,0 l/m 0 min 0 min 135 W/m 16,1 km/h (3 Bft) 97,44 %
04.11.2018 11:48 9,8 C 10,0 C 9,4 C 87 % 1015,1 hPa 0,0 l/m 0 min 0 min 133 W/m 12,9 km/h (3 Bft) 100,00 %
04.11.2018 11:50 9,8 C 10,0 C 9,4 C 87 % 1015,0 hPa 0,0 l/m 0 min 0 min 133 W/m 22,5 km/h (4 Bft) 100,00 %
04.11.2018 11:52 9,9 C 10,0 C 9,4 C 87 % 1015,1 hPa 0,0 l/m 0 min 0 min 150 W/m 12,9 km/h (3 Bft) 100,00 %
04.11.2018 11:54 9,9 C 10,6 C 9,4 C 87 % 1015,0 hPa 0,0 l/m 0 min 0 min 168 W/m 12,9 km/h (3 Bft) 97,87 %
04.11.2018 11:56 9,9 C 10,6 C 9,4 C 87 % 1015,0 hPa 0,0 l/m 0 min 0 min 186 W/m 12,9 km/h (3 Bft) 95,92 %
04.11.2018 11:58 9,9 C 11,1 C 10,0 C 87 % 1014,8 hPa 0,0 l/m 0 min 0 min 192 W/m 22,5 km/h (4 Bft) 97,14 %
04.11.2018 12:00 10,0 C 11,1 C 10,0 C 87 % 1014,8 hPa 0,0 l/m 0 min 0 min 196 W/m 16,1 km/h (3 Bft) 98,15 %
04.11.2018 12:02 10,0 C 11,7 C 10,0 C 87 % 1014,8 hPa 0,0 l/m 2 min 0 min 227 W/m 16,1 km/h (3 Bft) 97,96 %
04.11.2018 12:04 10,1 C 11,7 C 10,0 C 87 % 1014,8 hPa 0,0 l/m 2 min 0 min 244 W/m 12,9 km/h (3 Bft) 96,00 %
04.11.2018 12:08 10,2 C 11,7 C 10,0 C 87 % 1014,7 hPa 0,0 l/m 4 min 0 min 204 W/m 19,3 km/h (3 Bft) 96,34 %
04.11.2018 12:10 10,2 C 11,1 C 10,0 C 87 % 1014,6 hPa 0,0 l/m 2 min 0 min 201 W/m 25,7 km/h (4 Bft) 96,23 %
04.11.2018 12:12 10,2 C 11,7 C 10,0 C 87 % 1014,6 hPa 0,0 l/m 2 min 0 min 202 W/m 12,9 km/h (3 Bft) 93,88 %
04.11.2018 12:14 10,3 C 11,7 C 10,6 C 87 % 1014,5 hPa 0,0 l/m 2 min 0 min 224 W/m 12,9 km/h (3 Bft) 96,00 %
04.11.2018 12:16 10,3 C 12,2 C 10,6 C 87 % 1014,5 hPa 0,0 l/m 2 min 0 min 237 W/m 12,9 km/h (3 Bft) 97,14 %
04.11.2018 12:18 10,4 C 12,2 C 10,6 C 87 % 1014,5 hPa 0,0 l/m 2 min 0 min 252 W/m 12,9 km/h (3 Bft) 96,23 %
04.11.2018 12:20 10,4 C 12,8 C 10,6 C 87 % 1014,3 hPa 0,0 l/m 2 min 0 min 251 W/m 9,7 km/h (2 Bft) 97,87 %
04.11.2018 12:22 10,5 C 12,8 C 10,6 C 87 % 1014,3 hPa 0,0 l/m 2 min 0 min 265 W/m 25,7 km/h (4 Bft) 95,74 %
04.11.2018 12:24 10,6 C 12,8 C 10,6 C 87 % 1014,3 hPa 0,0 l/m 2 min 0 min 241 W/m 16,1 km/h (3 Bft) 93,62 %
04.11.2018 12:26 10,6 C 12,8 C 10,6 C 86 % 1014,3 hPa 0,0 l/m 2 min 0 min 296 W/m 19,3 km/h (3 Bft) 97,96 %
04.11.2018 12:28 10,7 C 13,9 C 10,6 C 86 % 1014,3 hPa 0,0 l/m 2 min 0 min 277 W/m 16,1 km/h (3 Bft) 94,00 %
04.11.2018 12:30 10,8 C 15,0 C 10,6 C 86 % 1014,2 hPa 0,0 l/m 2 min 0 min 448 W/m 16,1 km/h (3 Bft) 97,14 %
04.11.2018 12:32 10,9 C 15,0 C 11,1 C 86 % 1014,1 hPa 0,0 l/m 2 min 0 min 387 W/m 16,1 km/h (3 Bft) 96,23 %
04.11.2018 12:34 11,0 C 13,9 C 10,6 C 86 % 1014,1 hPa 0,0 l/m 2 min 0 min 233 W/m 16,1 km/h (3 Bft) 98,00 %
04.11.2018 12:38 11,1 C 12,8 C 10,6 C 85 % 1014,1 hPa 0,0 l/m 4 min 0 min 215 W/m 16,1 km/h (3 Bft) 96,88 %
04.11.2018 12:40 11,2 C 12,8 C 10,6 C 85 % 1014,1 hPa 0,0 l/m 2 min 0 min 222 W/m 12,9 km/h (3 Bft) 97,14 %
04.11.2018 12:42 11,2 C 12,8 C 10,6 C 85 % 1014,2 hPa 0,0 l/m 2 min 0 min 241 W/m 16,1 km/h (3 Bft) 98,11 %
04.11.2018 12:44 11,3 C 12,8 C 11,1 C 84 % 1014,2 hPa 0,0 l/m 2 min 0 min 268 W/m 12,9 km/h (3 Bft) 96,00 %
04.11.2018 12:46 11,3 C 13,9 C 11,1 C 84 % 1014,1 hPa 0,0 l/m 2 min 0 min 286 W/m 25,7 km/h (4 Bft) 95,92 %
04.11.2018 12:48 11,4 C 13,9 C 11,1 C 84 % 1014,1 hPa 0,0 l/m 2 min 0 min 324 W/m 9,7 km/h (2 Bft) 97,14 %
04.11.2018 12:50 11,4 C 13,9 C 11,1 C 84 % 1014,1 hPa 0,0 l/m 2 min 0 min 298 W/m 22,5 km/h (4 Bft) 98,11 %
04.11.2018 12:52 11,5 C 14,4 C 11,1 C 83 % 1014,0 hPa 0,0 l/m 2 min 0 min 332 W/m 19,3 km/h (3 Bft) 98,00 %
04.11.2018 12:54 11,5 C 14,4 C 11,1 C 83 % 1013,9 hPa 0,0 l/m 2 min 0 min 303 W/m 16,1 km/h (3 Bft) 97,87 %
04.11.2018 12:56 11,6 C 14,4 C 11,1 C 83 % 1013,8 hPa 0,0 l/m 2 min 0 min 301 W/m 25,7 km/h (4 Bft) 97,96 %
04.11.2018 12:58 11,6 C 13,9 C 11,1 C 83 % 1013,8 hPa 0,0 l/m 2 min 0 min 278 W/m 19,3 km/h (3 Bft) 94,29 %
04.11.2018 13:00 11,7 C 15,0 C 11,1 C 82 % 1013,8 hPa 0,0 l/m 2 min 0 min 329 W/m 9,7 km/h (2 Bft) 96,23 %
04.11.2018 13:02 11,7 C 16,1 C 11,1 C 82 % 1013,7 hPa 0,0 l/m 2 min 0 min 383 W/m 16,1 km/h (3 Bft) 94,00 %
04.11.2018 13:04 11,8 C 15,6 C 11,1 C 83 % 1013,8 hPa 0,0 l/m 2 min 0 min 398 W/m 9,7 km/h (2 Bft) 96,00 %
04.11.2018 13:08 11,9 C 15,0 C 11,7 C 82 % 1013,8 hPa 0,0 l/m 4 min 0 min 276 W/m 12,9 km/h (3 Bft) 95,12 %
04.11.2018 13:10 12,0 C 14,4 C 11,7 C 82 % 1013,7 hPa 0,0 l/m 2 min 0 min 280 W/m 12,9 km/h (3 Bft) 94,34 %
04.11.2018 13:12 12,1 C 14,4 C 11,7 C 82 % 1013,7 hPa 0,0 l/m 2 min 0 min 264 W/m 12,9 km/h (3 Bft) 95,92 %
04.11.2018 13:14 12,1 C 13,9 C 11,7 C 82 % 1013,7 hPa 0,0 l/m 2 min 0 min 233 W/m 12,9 km/h (3 Bft) 94,00 %
04.11.2018 13:16 12,1 C 13,3 C 11,1 C 81 % 1013,7 hPa 0,0 l/m 2 min 0 min 213 W/m 22,5 km/h (4 Bft) 97,14 %
04.11.2018 13:18 12,1 C 12,8 C 11,1 C 81 % 1013,5 hPa 0,0 l/m 2 min 0 min 218 W/m 22,5 km/h (4 Bft) 94,34 %
04.11.2018 13:20 12,1 C 13,9 C 11,1 C 81 % 1013,6 hPa 0,0 l/m 2 min 0 min 243 W/m 22,5 km/h (4 Bft) 96,00 %
04.11.2018 13:22 12,1 C 14,4 C 11,1 C 81 % 1013,6 hPa 0,0 l/m 2 min 0 min 312 W/m 12,9 km/h (3 Bft) 93,75 %
04.11.2018 13:24 12,2 C 14,4 C 11,1 C 81 % 1013,4 hPa 0,0 l/m 2 min 0 min 385 W/m 16,1 km/h (3 Bft) 95,65 %
04.11.2018 13:26 12,2 C 14,4 C 11,7 C 81 % 1013,5 hPa 0,0 l/m 2 min 0 min 426 W/m 16,1 km/h (3 Bft) 94,59 %
04.11.2018 13:28 12,2 C 14,4 C 11,7 C 81 % 1013,5 hPa 0,0 l/m 2 min 0 min 312 W/m 16,1 km/h (3 Bft) 95,74 %
04.11.2018 13:30 12,2 C 15,6 C 11,7 C 81 % 1013,4 hPa 0,0 l/m 2 min 0 min 335 W/m 12,9 km/h (3 Bft) 96,23 %
04.11.2018 13:32 12,3 C 15,6 C 11,7 C 81 % 1013,4 hPa 0,0 l/m 2 min 0 min 379 W/m 16,1 km/h (3 Bft) 96,00 %
04.11.2018 13:34 12,3 C 16,1 C 11,7 C 81 % 1013,3 hPa 0,0 l/m 2 min 0 min 297 W/m 9,7 km/h (2 Bft) 97,96 %
04.11.2018 13:38 12,4 C 16,1 C 11,7 C 81 % 1013,3 hPa 0,0 l/m 4 min 0 min 307 W/m 12,9 km/h (3 Bft) 97,56 %
04.11.2018 13:40 12,5 C 15,6 C 11,7 C 81 % 1013,3 hPa 0,0 l/m 2 min 0 min 297 W/m 12,9 km/h (3 Bft) 96,23 %
04.11.2018 13:42 12,6 C 15,0 C 11,7 C 81 % 1013,3 hPa 0,0 l/m 2 min 0 min 234 W/m 9,7 km/h (2 Bft) 100,00 %
04.11.2018 13:44 12,6 C 14,4 C 11,7 C 81 % 1013,3 hPa 0,0 l/m 2 min 0 min 211 W/m 6,4 km/h (2 Bft) 100,00 %
04.11.2018 13:46 12,6 C 14,4 C 11,7 C 81 % 1013,3 hPa 0,0 l/m 2 min 0 min 204 W/m 6,4 km/h (2 Bft) 100,00 %
04.11.2018 13:48 12,6 C 13,9 C 11,7 C 80 % 1013,3 hPa 0,0 l/m 2 min 0 min 208 W/m 6,4 km/h (2 Bft) 100,00 %
04.11.2018 13:50 12,6 C 13,3 C 11,7 C 80 % 1013,1 hPa 0,0 l/m 2 min 0 min 189 W/m 9,7 km/h (2 Bft) 97,87 %
04.11.2018 13:52 12,6 C 13,3 C 11,7 C 80 % 1013,1 hPa 0,0 l/m 2 min 0 min 204 W/m 16,1 km/h (3 Bft) 100,00 %
04.11.2018 13:54 12,6 C 13,3 C 11,1 C 80 % 1013,1 hPa 0,0 l/m 2 min 0 min 180 W/m 16,1 km/h (3 Bft) 100,00 %
04.11.2018 13:56 12,6 C 13,3 C 11,1 C 81 % 1013,1 hPa 0,0 l/m 2 min 0 min 204 W/m 9,7 km/h (2 Bft) 100,00 %
04.11.2018 13:58 12,6 C 13,9 C 11,1 C 81 % 1013,0 hPa 0,0 l/m 2 min 0 min 205 W/m 6,4 km/h (2 Bft) 100,00 %
04.11.2018 14:00 12,6 C 13,9 C 11,1 C 81 % 1013,0 hPa 0,0 l/m 2 min 0 min 210 W/m 9,7 km/h (2 Bft) 100,00 %
04.11.2018 14:02 12,6 C 13,9 C 11,1 C 81 % 1013,0 hPa 0,0 l/m 2 min 0 min 207 W/m 16,1 km/h (3 Bft) 100,00 %
04.11.2018 14:04 12,6 C 14,4 C 11,1 C 81 % 1013,0 hPa 0,0 l/m 2 min 0 min 315 W/m 12,9 km/h (3 Bft) 100,00 %
04.11.2018 14:08 12,6 C 14,4 C 11,7 C 80 % 1013,0 hPa 0,0 l/m 4 min 0 min 246 W/m 16,1 km/h (3 Bft) 98,95 %
04.11.2018 14:10 12,6 C 14,4 C 11,7 C 80 % 1013,0 hPa 0,0 l/m 2 min 0 min 222 W/m 9,7 km/h (2 Bft) 100,00 %
04.11.2018 14:12 12,6 C 14,4 C 11,7 C 80 % 1012,9 hPa 0,0 l/m 2 min 0 min 208 W/m 9,7 km/h (2 Bft) 100,00 %
04.11.2018 14:14 12,6 C 14,4 C 11,7 C 80 % 1012,9 hPa 0,0 l/m 2 min 0 min 241 W/m 9,7 km/h (2 Bft) 97,87 %
04.11.2018 14:16 12,6 C 14,4 C 11,7 C 80 % 1012,9 hPa 0,0 l/m 2 min 0 min 240 W/m 9,7 km/h (2 Bft) 96,36 %
04.11.2018 14:18 12,6 C 14,4 C 11,1 C 80 % 1012,9 hPa 0,0 l/m 2 min 0 min 225 W/m 16,1 km/h (3 Bft) 96,00 %
04.11.2018 14:20 12,6 C 15,6 C 11,7 C 80 % 1012,8 hPa 0,0 l/m 2 min 0 min 367 W/m 9,7 km/h (2 Bft) 97,87 %
04.11.2018 14:22 12,6 C 15,6 C 11,7 C 81 % 1012,7 hPa 0,0 l/m 2 min 0 min 326 W/m 16,1 km/h (3 Bft) 97,14 %
04.11.2018 14:24 12,7 C 15,6 C 11,7 C 80 % 1012,8 hPa 0,0 l/m 2 min 0 min 277 W/m 16,1 km/h (3 Bft) 97,87 %
04.11.2018 14:26 12,7 C 16,1 C 11,7 C 80 % 1012,7 hPa 0,0 l/m 2 min 0 min 287 W/m 12,9 km/h (3 Bft) 97,87 %
04.11.2018 14:28 12,7 C 16,7 C 11,7 C 80 % 1012,7 hPa 0,0 l/m 2 min 0 min 301 W/m 9,7 km/h (2 Bft) 96,36 %
04.11.2018 14:30 12,8 C 16,1 C 11,7 C 80 % 1012,6 hPa 0,0 l/m 2 min 0 min 297 W/m 9,7 km/h (2 Bft) 96,00 %
04.11.2018 14:32 12,8 C 16,1 C 11,7 C 80 % 1012,6 hPa 0,0 l/m 2 min 0 min 299 W/m 9,7 km/h (2 Bft) 100,00 %
04.11.2018 14:34 12,9 C 16,1 C 11,7 C 80 % 1012,6 hPa 0,0 l/m 2 min 0 min 294 W/m 16,1 km/h (3 Bft) 95,74 %
04.11.2018 14:38 12,9 C 16,1 C 11,1 C 79 % 1012,5 hPa 0,0 l/m 4 min 0 min 283 W/m 12,9 km/h (3 Bft) 98,04 %
04.11.2018 14:40 12,9 C 16,1 C 11,1 C 79 % 1012,5 hPa 0,0 l/m 2 min 0 min 275 W/m 22,5 km/h (4 Bft) 98,00 %
04.11.2018 14:42 12,9 C 15,6 C 11,1 C 79 % 1012,4 hPa 0,0 l/m 2 min 0 min 265 W/m 12,9 km/h (3 Bft) 97,22 %
04.11.2018 14:44 13,0 C 15,0 C 11,1 C 79 % 1012,3 hPa 0,0 l/m 2 min 0 min 268 W/m 19,3 km/h (3 Bft) 97,83 %
04.11.2018 14:46 13,0 C 15,6 C 11,1 C 78 % 1012,3 hPa 0,0 l/m 2 min 0 min 259 W/m 9,7 km/h (2 Bft) 98,18 %
04.11.2018 14:48 12,9 C 15,0 C 11,1 C 78 % 1012,3 hPa 0,0 l/m 2 min 0 min 252 W/m 9,7 km/h (2 Bft) 96,00 %
04.11.2018 14:50 12,9 C 15,6 C 10,6 C 78 % 1012,2 hPa 0,0 l/m 2 min 0 min 248 W/m 9,7 km/h (2 Bft) 97,92 %
04.11.2018 14:52 12,9 C 15,0 C 10,6 C 78 % 1012,2 hPa 0,0 l/m 2 min 0 min 245 W/m 16,1 km/h (3 Bft) 97,14 %
04.11.2018 14:54 12,9 C 15,0 C 11,1 C 78 % 1012,1 hPa 0,0 l/m 2 min 0 min 246 W/m 19,3 km/h (3 Bft) 97,83 %
04.11.2018 14:56 12,9 C 14,4 C 11,1 C 78 % 1012,2 hPa 0,0 l/m 2 min 0 min 207 W/m 22,5 km/h (4 Bft) 100,00 %
04.11.2018 14:58 12,9 C 15,0 C 11,1 C 78 % 1012,1 hPa 0,0 l/m 2 min 0 min 240 W/m 9,7 km/h (2 Bft) 100,00 %
04.11.2018 15:00 12,8 C 15,6 C 11,1 C 78 % 1012,2 hPa 0,0 l/m 2 min 0 min 248 W/m 9,7 km/h (2 Bft) 100,00 %
04.11.2018 15:02 12,8 C 15,0 C 11,1 C 78 % 1012,1 hPa 0,0 l/m 2 min 0 min 241 W/m 12,9 km/h (3 Bft) 97,22 %
04.11.2018 15:04 12,8 C 14,4 C 11,1 C 79 % 1012,1 hPa 0,0 l/m 2 min 0 min 228 W/m 12,9 km/h (3 Bft) 97,87 %
04.11.2018 15:08 12,7 C 13,3 C 10,6 C 79 % 1012,0 hPa 0,0 l/m 4 min 0 min 218 W/m 12,9 km/h (3 Bft) 100,00 %
04.11.2018 15:10 12,7 C 12,8 C 10,6 C 79 % 1012,0 hPa 0,0 l/m 2 min 0 min 211 W/m 9,7 km/h (2 Bft) 97,96 %
04.11.2018 15:12 12,6 C 12,8 C 10,6 C 79 % 1012,0 hPa 0,0 l/m 2 min 0 min 213 W/m 9,7 km/h (2 Bft) 100,00 %
04.11.2018 15:14 12,6 C 12,2 C 10,6 C 80 % 1012,0 hPa 0,0 l/m 2 min 0 min 201 W/m 12,9 km/h (3 Bft) 100,00 %
04.11.2018 15:16 12,5 C 12,2 C 10,6 C 80 % 1012,0 hPa 0,0 l/m 2 min 0 min 197 W/m 12,9 km/h (3 Bft) 100,00 %
04.11.2018 15:18 12,4 C 12,2 C 10,6 C 80 % 1011,9 hPa 0,0 l/m 2 min 0 min 195 W/m 9,7 km/h (2 Bft) 100,00 %
04.11.2018 15:20 12,4 C 12,2 C 10,6 C 80 % 1012,0 hPa 0,0 l/m 2 min 0 min 196 W/m 16,1 km/h (3 Bft) 100,00 %
04.11.2018 15:22 12,4 C 12,2 C 10,6 C 80 % 1012,0 hPa 0,0 l/m 2 min 0 min 195 W/m 9,7 km/h (2 Bft) 100,00 %
04.11.2018 15:24 12,4 C 12,2 C 10,6 C 80 % 1012,0 hPa 0,0 l/m 2 min 0 min 182 W/m 12,9 km/h (3 Bft) 97,87 %
04.11.2018 15:26 12,4 C 12,2 C 10,6 C 80 % 1011,9 hPa 0,0 l/m 2 min 0 min 178 W/m 9,7 km/h (2 Bft) 100,00 %
04.11.2018 15:28 12,4 C 12,2 C 10,6 C 80 % 1011,9 hPa 0,0 l/m 2 min 0 min 162 W/m 12,9 km/h (3 Bft) 97,87 %
04.11.2018 15:30 12,3 C 12,2 C 10,6 C 80 % 1011,8 hPa 0,0 l/m 2 min 0 min 135 W/m 9,7 km/h (2 Bft) 98,00 %
04.11.2018 15:32 12,3 C 12,2 C 10,6 C 81 % 1011,8 hPa 0,0 l/m 2 min 0 min 115 W/m 12,9 km/h (3 Bft) 97,14 %
04.11.2018 15:34 12,3 C 12,2 C 10,6 C 80 % 1012,0 hPa 0,0 l/m 0 min 0 min 92 W/m 9,7 km/h (2 Bft) 95,74 %
04.11.2018 15:38 12,3 C 11,7 C 10,6 C 80 % 1011,9 hPa 0,0 l/m 0 min 0 min 78 W/m 16,1 km/h (3 Bft) 96,08 %
04.11.2018 15:40 12,2 C 11,7 C 10,6 C 80 % 1011,9 hPa 0,0 l/m 0 min 0 min 75 W/m 16,1 km/h (3 Bft) 98,00 %
04.11.2018 15:42 12,2 C 11,7 C 10,6 C 80 % 1012,0 hPa 0,0 l/m 0 min 0 min 79 W/m 9,7 km/h (2 Bft) 97,14 %
04.11.2018 15:44 12,2 C 12,2 C 10,6 C 80 % 1012,0 hPa 0,0 l/m 2 min 0 min 84 W/m 6,4 km/h (2 Bft) 95,74 %
04.11.2018 15:46 12,2 C 11,7 C 10,6 C 80 % 1012,0 hPa 0,0 l/m 0 min 0 min 81 W/m 16,1 km/h (3 Bft) 92,73 %
04.11.2018 15:48 12,2 C 11,7 C 10,6 C 81 % 1012,0 hPa 0,0 l/m 0 min 0 min 76 W/m 9,7 km/h (2 Bft) 96,00 %
04.11.2018 15:50 12,2 C 11,7 C 10,6 C 81 % 1012,0 hPa 0,0 l/m 0 min 0 min 72 W/m 6,4 km/h (2 Bft) 95,74 %
04.11.2018 15:52 12,2 C 11,7 C 10,6 C 81 % 1012,0 hPa 0,0 l/m 0 min 0 min 69 W/m 6,4 km/h (2 Bft) 94,44 %
04.11.2018 15:54 12,2 C 11,7 C 10,6 C 81 % 1012,0 hPa 0,0 l/m 0 min 0 min 60 W/m 6,4 km/h (2 Bft) 95,65 %
04.11.2018 15:56 12,2 C 11,7 C 10,6 C 81 % 1012,0 hPa 0,0 l/m 0 min 0 min 58 W/m 6,4 km/h (2 Bft) 95,74 %
04.11.2018 15:58 12,2 C 11,7 C 10,6 C 81 % 1012,1 hPa 0,0 l/m 0 min 0 min 57 W/m 6,4 km/h (2 Bft) 95,74 %
04.11.2018 16:00 12,1 C 11,7 C 10,6 C 81 % 1012,0 hPa 0,0 l/m 0 min 0 min 58 W/m 6,4 km/h (2 Bft) 94,55 %
04.11.2018 16:02 12,1 C 11,7 C 10,6 C 81 % 1012,0 hPa 0,0 l/m 0 min 0 min 58 W/m 6,4 km/h (2 Bft) 94,00 %
04.11.2018 16:04 12,1 C 11,7 C 10,6 C 81 % 1012,0 hPa 0,0 l/m 0 min 0 min 60 W/m 9,7 km/h (2 Bft) 94,44 %
04.11.2018 16:08 12,1 C 11,7 C 10,6 C 82 % 1012,0 hPa 0,0 l/m 4 min 0 min 61 W/m 9,7 km/h (2 Bft) 94,62 %
04.11.2018 16:10 12,1 C 11,7 C 10,6 C 82 % 1012,0 hPa 0,0 l/m 2 min 0 min 60 W/m 6,4 km/h (2 Bft) 96,36 %
04.11.2018 16:12 12,0 C 11,7 C 10,6 C 82 % 1012,0 hPa 0,0 l/m 2 min 0 min 62 W/m 16,1 km/h (3 Bft) 96,00 %
04.11.2018 16:14 12,0 C 11,7 C 10,6 C 81 % 1012,0 hPa 0,0 l/m 2 min 0 min 62 W/m 16,1 km/h (3 Bft) 91,67 %
04.11.2018 16:16 11,9 C 11,7 C 10,6 C 82 % 1011,9 hPa 0,0 l/m 2 min 0 min 56 W/m 16,1 km/h (3 Bft) 95,65 %
04.11.2018 16:18 11,9 C 11,7 C 10,6 C 82 % 1011,9 hPa 0,0 l/m 2 min 0 min 51 W/m 12,9 km/h (3 Bft) 94,64 %
04.11.2018 16:20 11,9 C 11,7 C 10,6 C 82 % 1011,9 hPa 0,0 l/m 2 min 0 min 46 W/m 6,4 km/h (2 Bft) 95,92 %
04.11.2018 16:22 11,9 C 11,1 C 10,6 C 82 % 1011,9 hPa 0,0 l/m 2 min 0 min 43 W/m 16,1 km/h (3 Bft) 100,00 %
04.11.2018 16:24 11,9 C 11,1 C 10,6 C 82 % 1012,0 hPa 0,0 l/m 2 min 0 min 43 W/m 16,1 km/h (3 Bft) 100,00 %
04.11.2018 16:26 11,9 C 11,1 C 10,6 C 82 % 1012,0 hPa 0,0 l/m 2 min 0 min 39 W/m 16,1 km/h (3 Bft) 98,11 %
04.11.2018 16:28 11,8 C 11,1 C 10,6 C 82 % 1011,9 hPa 0,0 l/m 2 min 0 min 39 W/m 9,7 km/h (2 Bft) 100,00 %
04.11.2018 16:30 11,8 C 11,1 C 10,6 C 82 % 1011,9 hPa 0,0 l/m 2 min 0 min 37 W/m 12,9 km/h (3 Bft) 100,00 %
04.11.2018 16:32 11,8 C 11,1 C 10,0 C 82 % 1011,8 hPa 0,0 l/m 2 min 0 min 32 W/m 9,7 km/h (2 Bft) 100,00 %
04.11.2018 16:34 11,8 C 11,1 C 10,0 C 82 % 1011,8 hPa 0,0 l/m 2 min 0 min 32 W/m 16,1 km/h (3 Bft) 100,00 %
04.11.2018 16:38 11,8 C 11,1 C 10,0 C 83 % 1011,7 hPa 0,0 l/m 4 min 0 min 27 W/m 19,3 km/h (3 Bft) 99,00 %
04.11.2018 16:40 11,7 C 11,1 C 10,6 C 82 % 1011,8 hPa 0,0 l/m 2 min 0 min 23 W/m 22,5 km/h (4 Bft) 98,00 %
04.11.2018 16:42 11,7 C 11,1 C 10,0 C 82 % 1011,7 hPa 0,0 l/m 2 min 0 min 21 W/m 16,1 km/h (3 Bft) 100,00 %
04.11.2018 16:44 11,7 C 11,1 C 10,0 C 82 % 1011,7 hPa 0,0 l/m 0 min 0 min 19 W/m 12,9 km/h (3 Bft) 97,14 %
04.11.2018 16:46 11,7 C 11,1 C 10,0 C 83 % 1011,7 hPa 0,0 l/m 0 min 0 min 17 W/m 19,3 km/h (3 Bft) 98,11 %
04.11.2018 16:48 11,7 C 11,1 C 10,0 C 83 % 1011,7 hPa 0,0 l/m 0 min 0 min 13 W/m 16,1 km/h (3 Bft) 98,00 %
04.11.2018 16:50 11,7 C 10,6 C 10,0 C 83 % 1011,6 hPa 0,0 l/m 0 min 0 min 11 W/m 12,9 km/h (3 Bft) 95,92 %
04.11.2018 16:52 11,6 C 10,6 C 10,0 C 83 % 1011,6 hPa 0,0 l/m 0 min 0 min 9 W/m 22,5 km/h (4 Bft) 97,87 %
04.11.2018 16:54 11,6 C 10,6 C 10,0 C 83 % 1011,5 hPa 0,0 l/m 0 min 0 min 7 W/m 16,1 km/h (3 Bft) 95,74 %
04.11.2018 16:56 11,6 C 10,6 C 10,0 C 83 % 1011,5 hPa 0,0 l/m 0 min 0 min 5 W/m 19,3 km/h (3 Bft) 97,14 %
04.11.2018 16:58 11,6 C 10,6 C 10,0 C 83 % 1011,4 hPa 0,0 l/m 0 min 0 min 5 W/m 6,4 km/h (2 Bft) 98,11 %
04.11.2018 17:00 11,5 C 10,6 C 10,0 C 83 % 1011,5 hPa 0,0 l/m 0 min 0 min 2 W/m 12,9 km/h (3 Bft) 98,00 %
04.11.2018 17:02 11,5 C 10,6 C 9,4 C 83 % 1011,5 hPa 0,0 l/m 0 min 0 min 0 W/m 12,9 km/h (3 Bft) 97,96 %
04.11.2018 17:04 11,5 C 10,6 C 9,4 C 83 % 1011,5 hPa 0,0 l/m 0 min 0 min 0 W/m 12,9 km/h (3 Bft) 97,14 %
04.11.2018 17:08 11,4 C 10,6 C 9,4 C 83 % 1011,5 hPa 0,0 l/m 0 min 0 min 0 W/m 22,5 km/h (4 Bft) 96,00 %
04.11.2018 17:10 11,4 C 10,6 C 9,4 C 83 % 1011,5 hPa 0,0 l/m 0 min 0 min 0 W/m 16,1 km/h (3 Bft) 97,87 %
04.11.2018 17:12 11,3 C 10,0 C 9,4 C 83 % 1011,5 hPa 0,0 l/m 0 min 0 min 0 W/m 9,7 km/h (2 Bft) 98,00 %
04.11.2018 17:14 11,3 C 10,0 C 9,4 C 83 % 1011,5 hPa 0,0 l/m 0 min 0 min 0 W/m 9,7 km/h (2 Bft) 97,96 %
04.11.2018 17:16 11,3 C 10,0 C 9,4 C 84 % 1011,6 hPa 0,0 l/m 0 min 0 min 0 W/m 12,9 km/h (3 Bft) 97,14 %
04.11.2018 17:18 11,3 C 10,0 C 9,4 C 84 % 1011,5 hPa 0,0 l/m 0 min 0 min 0 W/m 6,4 km/h (2 Bft) 98,11 %
04.11.2018 17:20 11,2 C 10,0 C 8,9 C 84 % 1011,5 hPa 0,0 l/m 0 min 0 min 0 W/m 6,4 km/h (2 Bft) 98,00 %
04.11.2018 17:22 11,2 C 10,0 C 8,9 C 84 % 1011,5 hPa 0,0 l/m 0 min 0 min 0 W/m 3,2 km/h (1 Bft) 95,74 %
04.11.2018 17:24 11,2 C 10,0 C 8,9 C 84 % 1011,5 hPa 0,0 l/m 0 min 0 min 0 W/m 9,7 km/h (2 Bft) 95,74 %
04.11.2018 17:26 11,1 C 9,4 C 8,9 C 84 % 1011,5 hPa 0,0 l/m 0 min 0 min 0 W/m 6,4 km/h (2 Bft) 97,96 %
04.11.2018 17:28 11,1 C 9,4 C 8,9 C 84 % 1011,5 hPa 0,0 l/m 0 min 0 min 0 W/m 3,2 km/h (1 Bft) 97,14 %
04.11.2018 17:30 11,0 C 9,4 C 8,9 C 84 % 1011,6 hPa 0,0 l/m 0 min 0 min 0 W/m 6,4 km/h (2 Bft) 98,11 %
04.11.2018 17:32 10,9 C 9,4 C 8,3 C 84 % 1011,5 hPa 0,0 l/m 0 min 0 min 0 W/m 6,4 km/h (2 Bft) 98,00 %
04.11.2018 17:34 10,9 C 9,4 C 8,3 C 85 % 1011,5 hPa 0,0 l/m 0 min 0 min 0 W/m 6,4 km/h (2 Bft) 97,96 %
04.11.2018 17:38 10,8 C 9,4 C 8,3 C 85 % 1011,5 hPa 0,0 l/m 0 min 0 min 0 W/m 6,4 km/h (2 Bft) 100,00 %
04.11.2018 17:40 10,8 C 9,4 C 8,3 C 85 % 1011,6 hPa 0,0 l/m 0 min 0 min 0 W/m 6,4 km/h (2 Bft) 96,30 %
04.11.2018 17:42 10,7 C 9,4 C 8,3 C 85 % 1011,6 hPa 0,0 l/m 0 min 0 min 0 W/m 9,7 km/h (2 Bft) 93,88 %
04.11.2018 17:44 10,7 C 9,4 C 8,3 C 85 % 1011,6 hPa 0,0 l/m 0 min 0 min 0 W/m 9,7 km/h (2 Bft) 98,00 %
04.11.2018 17:46 10,6 C 9,4 C 8,9 C 85 % 1011,6 hPa 0,0 l/m 0 min 0 min 0 W/m 6,4 km/h (2 Bft) 100,00 %
04.11.2018 17:48 10,6 C 9,4 C 8,9 C 86 % 1011,6 hPa 0,0 l/m 0 min 0 min 0 W/m 9,7 km/h (2 Bft) 100,00 %
04.11.2018 17:50 10,6 C 9,4 C 8,9 C 85 % 1011,5 hPa 0,0 l/m 0 min 0 min 0 W/m 6,4 km/h (2 Bft) 100,00 %
04.11.2018 17:52 10,6 C 9,4 C 8,9 C 86 % 1011,6 hPa 0,0 l/m 0 min 0 min 0 W/m 6,4 km/h (2 Bft) 95,74 %
04.11.2018 17:54 10,5 C 9,4 C 8,3 C 86 % 1011,5 hPa 0,0 l/m 0 min 0 min 0 W/m 3,2 km/h (1 Bft) 97,87 %
04.11.2018 17:56 10,5 C 9,4 C 8,3 C 86 % 1011,6 hPa 0,0 l/m 0 min 0 min 0 W/m 6,4 km/h (2 Bft) 97,30 %
04.11.2018 17:58 10,4 C 9,4 C 8,3 C 86 % 1011,5 hPa 0,0 l/m 0 min 0 min 0 W/m 3,2 km/h (1 Bft) 100,00 %
04.11.2018 18:00 10,4 C 8,9 C 8,3 C 86 % 1011,5 hPa 0,0 l/m 0 min 0 min 0 W/m 0,0 km/h (0 Bft) 100,00 %
04.11.2018 18:02 10,4 C 8,9 C 7,8 C 86 % 1011,5 hPa 0,0 l/m 0 min 0 min 0 W/m 6,4 km/h (2 Bft) 96,36 %
04.11.2018 18:04 10,3 C 8,9 C 7,8 C 86 % 1011,6 hPa 0,0 l/m 0 min 0 min 0 W/m 3,2 km/h (1 Bft) 97,96 %
04.11.2018 18:08 10,2 C 8,9 C 7,8 C 86 % 1011,5 hPa 0,0 l/m 0 min 0 min 0 W/m 6,4 km/h (2 Bft) 97,59 %
04.11.2018 18:10 10,2 C 8,9 C 7,8 C 86 % 1011,5 hPa 0,0 l/m 0 min 0 min 0 W/m 3,2 km/h (1 Bft) 97,87 %
04.11.2018 18:12 10,1 C 8,9 C 7,8 C 87 % 1011,6 hPa 0,0 l/m 0 min 0 min 0 W/m 3,2 km/h (1 Bft) 98,18 %
04.11.2018 18:14 10,1 C 8,3 C 7,8 C 87 % 1011,6 hPa 0,0 l/m 0 min 0 min 0 W/m 3,2 km/h (1 Bft) 97,96 %
04.11.2018 18:16 10,1 C 8,3 C 7,8 C 87 % 1011,6 hPa 0,0 l/m 0 min 0 min 0 W/m 0,0 km/h (0 Bft) 97,22 %
04.11.2018 18:18 10,0 C 8,3 C 7,8 C 87 % 1011,5 hPa 0,0 l/m 0 min 0 min 0 W/m 0,0 km/h (0 Bft) 97,87 %
04.11.2018 18:20 10,0 C 7,8 C 7,2 C 87 % 1011,4 hPa 0,0 l/m 0 min 0 min 0 W/m 3,2 km/h (1 Bft) 98,18 %
04.11.2018 18:22 9,9 C 7,8 C 7,2 C 87 % 1011,4 hPa 0,0 l/m 0 min 0 min 0 W/m 0,0 km/h (0 Bft) 94,00 %
04.11.2018 18:24 9,9 C 7,2 C 7,2 C 86 % 1011,4 hPa 0,0 l/m 0 min 0 min 0 W/m 0,0 km/h (0 Bft) 97,87 %
04.11.2018 18:26 9,8 C 7,2 C 7,2 C 86 % 1011,4 hPa 0,0 l/m 0 min 0 min 0 W/m 0,0 km/h (0 Bft) 97,14 %
04.11.2018 18:28 9,8 C 7,2 C 7,2 C 86 % 1011,3 hPa 0,0 l/m 0 min 0 min 0 W/m 0,0 km/h (0 Bft) 97,87 %
04.11.2018 18:30 9,7 C 7,2 C 6,7 C 86 % 1011,3 hPa 0,0 l/m 0 min 0 min 0 W/m 0,0 km/h (0 Bft) 97,87 %
04.11.2018 18:32 9,6 C 6,7 C 6,7 C 86 % 1011,3 hPa 0,0 l/m 0 min 0 min 0 W/m 3,2 km/h (1 Bft) 98,08 %
04.11.2018 18:34 9,6 C 6,7 C 6,7 C 86 % 1011,3 hPa 0,0 l/m 0 min 0 min 0 W/m 3,2 km/h (1 Bft) 96,23 %
04.11.2018 18:38 9,4 C 6,7 C 6,7 C 86 % 1011,3 hPa 0,0 l/m 0 min 0 min 0 W/m 3,2 km/h (1 Bft) 97,65 %
04.11.2018 18:40 9,3 C 6,7 C 6,7 C 86 % 1011,3 hPa 0,0 l/m 0 min 0 min 0 W/m 3,2 km/h (1 Bft) 97,96 %
04.11.2018 18:42 9,3 C 6,7 C 6,7 C 86 % 1011,4 hPa 0,0 l/m 0 min 0 min 0 W/m 3,2 km/h (1 Bft) 97,87 %
04.11.2018 18:44 9,3 C 7,2 C 6,7 C 86 % 1011,3 hPa 0,0 l/m 0 min 0 min 0 W/m 6,4 km/h (2 Bft) 100,00 %
04.11.2018 18:46 9,2 C 7,2 C 6,7 C 86 % 1011,4 hPa 0,0 l/m 0 min 0 min 0 W/m 3,2 km/h (1 Bft) 97,37 %
04.11.2018 18:48 9,2 C 7,2 C 6,7 C 87 % 1011,4 hPa 0,0 l/m 0 min 0 min 0 W/m 3,2 km/h (1 Bft) 100,00 %
04.11.2018 18:50 9,1 C 7,8 C 6,7 C 87 % 1011,6 hPa 0,0 l/m 0 min 0 min 0 W/m 3,2 km/h (1 Bft) 100,00 %
04.11.2018 18:52 9,1 C 7,8 C 6,7 C 87 % 1011,5 hPa 0,0 l/m 0 min 0 min 0 W/m 6,4 km/h (2 Bft) 100,00 %
04.11.2018 18:54 9,1 C 7,8 C 6,7 C 88 % 1011,4 hPa 0,0 l/m 0 min 0 min 0 W/m 0,0 km/h (0 Bft) 100,00 %
04.11.2018 18:56 9,0 C 7,8 C 6,7 C 88 % 1011,4 hPa 0,0 l/m 0 min 0 min 0 W/m 3,2 km/h (1 Bft) 100,00 %
04.11.2018 18:58 9,0 C 7,8 C 6,7 C 88 % 1011,4 hPa 0,0 l/m 0 min 0 min 0 W/m 3,2 km/h (1 Bft) 100,00 %
04.11.2018 19:00 8,9 C 7,8 C 6,7 C 89 % 1011,3 hPa 0,0 l/m 0 min 0 min 0 W/m 0,0 km/h (0 Bft) 100,00 %
04.11.2018 19:02 8,9 C 7,8 C 6,7 C 89 % 1011,3 hPa 0,0 l/m 0 min 0 min 0 W/m 3,2 km/h (1 Bft) 95,74 %
04.11.2018 19:04 8,9 C 8,3 C 6,7 C 89 % 1011,3 hPa 0,0 l/m 0 min 0 min 0 W/m 3,2 km/h (1 Bft) 100,00 %
04.11.2018 19:08 8,9 C 8,3 C 7,2 C 90 % 1011,3 hPa 0,0 l/m 0 min 0 min 0 W/m 6,4 km/h (2 Bft) 98,82 %
04.11.2018 19:10 8,9 C 8,3 C 7,2 C 90 % 1011,3 hPa 0,0 l/m 0 min 0 min 0 W/m 0,0 km/h (0 Bft) 100,00 %
04.11.2018 19:12 8,9 C 8,3 C 6,7 C 90 % 1011,3 hPa 0,0 l/m 0 min 0 min 0 W/m 3,2 km/h (1 Bft) 100,00 %
04.11.2018 19:14 8,9 C 8,3 C 6,7 C 90 % 1011,2 hPa 0,0 l/m 0 min 0 min 0 W/m 3,2 km/h (1 Bft) 97,96 %
04.11.2018 19:16 8,9 C 8,3 C 7,2 C 90 % 1011,2 hPa 0,0 l/m 0 min 0 min 0 W/m 6,4 km/h (2 Bft) 100,00 %
04.11.2018 19:18 8,9 C 8,3 C 7,2 C 91 % 1011,2 hPa 0,0 l/m 0 min 0 min 0 W/m 6,4 km/h (2 Bft) 98,11 %
04.11.2018 19:20 8,9 C 7,8 C 6,7 C 91 % 1011,1 hPa 0,0 l/m 0 min 0 min 0 W/m 0,0 km/h (0 Bft) 96,00 %
04.11.2018 19:22 8,9 C 7,8 C 6,7 C 91 % 1011,1 hPa 0,0 l/m 0 min 0 min 0 W/m 3,2 km/h (1 Bft) 100,00 %
04.11.2018 19:24 8,9 C 7,8 C 6,7 C 91 % 1011,2 hPa 0,0 l/m 0 min 0 min 0 W/m 0,0 km/h (0 Bft) 87,23 %
04.11.2018 19:26 8,8 C 7,8 C 6,7 C 91 % 1011,2 hPa 0,0 l/m 0 min 0 min 0 W/m 6,4 km/h (2 Bft) 97,96 %
04.11.2018 19:28 8,8 C 7,8 C 6,7 C 91 % 1011,2 hPa 0,0 l/m 0 min 0 min 0 W/m 3,2 km/h (1 Bft) 93,62 %
04.11.2018 19:30 8,8 C 7,8 C 6,7 C 91 % 1011,3 hPa 0,0 l/m 0 min 0 min 0 W/m 0,0 km/h (0 Bft) 98,11 %
04.11.2018 19:32 8,8 C 7,8 C 6,7 C 91 % 1011,2 hPa 0,0 l/m 0 min 0 min 0 W/m 3,2 km/h (1 Bft) 97,37 %
04.11.2018 19:34 8,8 C 8,3 C 6,7 C 91 % 1011,3 hPa 0,0 l/m 0 min 0 min 0 W/m 6,4 km/h (2 Bft) 97,96 %
04.11.2018 19:38 8,8 C 7,8 C 6,7 C 91 % 1011,3 hPa 0,0 l/m 0 min 0 min 0 W/m 6,4 km/h (2 Bft) 96,81 %
04.11.2018 19:40 8,8 C 8,3 C 6,7 C 91 % 1011,3 hPa 0,0 l/m 0 min 0 min 0 W/m 6,4 km/h (2 Bft) 98,11 %
04.11.2018 19:42 8,8 C 8,3 C 7,2 C 91 % 1011,3 hPa 0,0 l/m 0 min 0 min 0 W/m 6,4 km/h (2 Bft) 97,37 %
04.11.2018 19:44 8,8 C 7,8 C 7,2 C 91 % 1011,2 hPa 0,0 l/m 0 min 0 min 0 W/m 3,2 km/h (1 Bft) 98,00 %
04.11.2018 19:46 8,8 C 7,8 C 7,2 C 91 % 1011,2 hPa 0,0 l/m 0 min 0 min 0 W/m 3,2 km/h (1 Bft) 97,83 %
04.11.2018 19:48 8,8 C 7,8 C 6,7 C 92 % 1011,1 hPa 0,0 l/m 0 min 0 min 0 W/m 0,0 km/h (0 Bft) 94,44 %
04.11.2018 19:50 8,7 C 7,8 C 6,7 C 92 % 1011,2 hPa 0,0 l/m 0 min 0 min 0 W/m 0,0 km/h (0 Bft) 95,92 %
04.11.2018 19:52 8,7 C 7,2 C 6,7 C 92 % 1011,2 hPa 0,0 l/m 0 min 0 min 0 W/m 0,0 km/h (0 Bft) 91,43 %
04.11.2018 19:54 8,7 C 7,2 C 6,7 C 92 % 1011,1 hPa 0,0 l/m 0 min 0 min 0 W/m 3,2 km/h (1 Bft) 95,74 %
04.11.2018 19:56 8,7 C 7,2 C 6,7 C 92 % 1011,1 hPa 0,0 l/m 0 min 0 min 0 W/m 3,2 km/h (1 Bft) 96,00 %
04.11.2018 19:58 8,7 C 6,7 C 6,7 C 91 % 1011,1 hPa 0,0 l/m 0 min 0 min 0 W/m 0,0 km/h (0 Bft) 95,65 %
04.11.2018 20:00 8,7 C 6,7 C 6,7 C 91 % 1010,9 hPa 0,0 l/m 0 min 0 min 0 W/m 0,0 km/h (0 Bft) 94,34 %
04.11.2018 20:02 8,6 C 6,7 C 6,1 C 91 % 1010,9 hPa 0,0 l/m 0 min 0 min 0 W/m 0,0 km/h (0 Bft) 97,37 %
04.11.2018 20:04 8,6 C 6,7 C 6,1 C 91 % 1010,9 hPa 0,0 l/m 0 min 0 min 0 W/m 0,0 km/h (0 Bft) 94,00 %
04.11.2018 20:08 8,5 C 6,7 C 6,1 C 91 % 1010,8 hPa 0,0 l/m 0 min 0 min 0 W/m 0,0 km/h (0 Bft) 93,55 %
04.11.2018 20:10 8,5 C 7,2 C 6,1 C 91 % 1010,9 hPa 0,0 l/m 0 min 0 min 0 W/m 0,0 km/h (0 Bft) 94,44 %
04.11.2018 20:12 8,4 C 7,2 C 6,1 C 91 % 1010,8 hPa 0,0 l/m 0 min 0 min 0 W/m 0,0 km/h (0 Bft) 97,37 %
04.11.2018 20:14 8,4 C 6,7 C 6,1 C 91 % 1010,9 hPa 0,0 l/m 0 min 0 min 0 W/m 0,0 km/h (0 Bft) 93,88 %
04.11.2018 20:16 8,4 C 6,7 C 6,1 C 91 % 1010,9 hPa 0,0 l/m 0 min 0 min 0 W/m 0,0 km/h (0 Bft) 95,74 %
04.11.2018 20:18 8,4 C 6,7 C 6,1 C 91 % 1010,9 hPa 0,0 l/m 0 min 0 min 0 W/m 0,0 km/h (0 Bft) 92,45 %
04.11.2018 20:20 8,3 C 6,7 C 6,1 C 91 % 1010,8 hPa 0,0 l/m 0 min 0 min 0 W/m 0,0 km/h (0 Bft) 96,00 %
04.11.2018 20:22 8,3 C 6,7 C 6,1 C 91 % 1010,8 hPa 0,0 l/m 0 min 0 min 0 W/m 3,2 km/h (1 Bft) 94,29 %
04.11.2018 20:24 8,3 C 7,2 C 6,1 C 91 % 1010,8 hPa 0,0 l/m 0 min 0 min 0 W/m 6,4 km/h (2 Bft) 97,87 %
04.11.2018 20:26 8,3 C 7,2 C 6,1 C 91 % 1010,9 hPa 0,0 l/m 0 min 0 min 0 W/m 6,4 km/h (2 Bft) 95,92 %
04.11.2018 20:28 8,3 C 7,8 C 6,1 C 92 % 1011,0 hPa 0,0 l/m 0 min 0 min 0 W/m 6,4 km/h (2 Bft) 95,74 %
04.11.2018 20:30 8,3 C 7,8 C 6,7 C 92 % 1010,9 hPa 0,0 l/m 0 min 0 min 0 W/m 6,4 km/h (2 Bft) 96,23 %
04.11.2018 20:32 8,3 C 7,8 C 6,7 C 92 % 1011,0 hPa 0,0 l/m 0 min 0 min 0 W/m 3,2 km/h (1 Bft) 95,74 %
04.11.2018 20:34 8,3 C 7,8 C 6,7 C 92 % 1011,0 hPa 0,0 l/m 0 min 0 min 0 W/m 3,2 km/h (1 Bft) 93,62 %
04.11.2018 20:38 8,3 C 7,2 C 6,7 C 92 % 1010,9 hPa 0,0 l/m 0 min 0 min 0 W/m 0,0 km/h (0 Bft) 95,70 %
04.11.2018 20:40 8,2 C 7,2 C 6,1 C 92 % 1010,8 hPa 0,0 l/m 0 min 0 min 0 W/m 0,0 km/h (0 Bft) 97,87 %
04.11.2018 20:42 8,2 C 6,7 C 6,1 C 92 % 1010,8 hPa 0,0 l/m 0 min 0 min 0 W/m 0,0 km/h (0 Bft) 95,74 %
04.11.2018 20:44 8,2 C 6,7 C 6,1 C 92 % 1010,8 hPa 0,0 l/m 0 min 0 min 0 W/m 0,0 km/h (0 Bft) 95,74 %
04.11.2018 20:46 8,2 C 6,7 C 6,1 C 92 % 1010,9 hPa 0,0 l/m 0 min 0 min 0 W/m 0,0 km/h (0 Bft) 97,87 %
04.11.2018 20:48 8,2 C 6,1 C 5,6 C 92 % 1010,9 hPa 0,0 l/m 0 min 0 min 0 W/m 0,0 km/h (0 Bft) 97,83 %
04.11.2018 20:50 8,1 C 6,1 C 5,6 C 92 % 1010,8 hPa 0,0 l/m 0 min 0 min 0 W/m 0,0 km/h (0 Bft) 97,87 %
04.11.2018 20:52 8,1 C 6,1 C 5,6 C 92 % 1010,8 hPa 0,0 l/m 0 min 0 min 0 W/m 0,0 km/h (0 Bft) 95,74 %
04.11.2018 20:54 8,1 C 6,1 C 5,6 C 92 % 1010,8 hPa 0,0 l/m 0 min 0 min 0 W/m 3,2 km/h (1 Bft) 97,87 %
04.11.2018 20:56 8,1 C 6,1 C 5,6 C 92 % 1010,7 hPa 0,0 l/m 0 min 0 min 0 W/m 0,0 km/h (0 Bft) 97,87 %
04.11.2018 20:58 8,0 C 6,1 C 5,6 C 92 % 1010,7 hPa 0,0 l/m 0 min 0 min 0 W/m 0,0 km/h (0 Bft) 97,83 %
04.11.2018 21:00 8,0 C 6,1 C 5,6 C 92 % 1010,7 hPa 0,0 l/m 0 min 0 min 0 W/m 0,0 km/h (0 Bft) 97,87 %
04.11.2018 21:02 7,9 C 6,1 C 5,6 C 92 % 1010,7 hPa 0,0 l/m 0 min 0 min 0 W/m 0,0 km/h (0 Bft) 97,87 %
04.11.2018 21:04 7,9 C 6,1 C 5,6 C 92 % 1010,7 hPa 0,0 l/m 0 min 0 min 0 W/m 0,0 km/h (0 Bft) 97,87 %
04.11.2018 21:08 7,8 C 6,1 C 5,6 C 92 % 1010,6 hPa 0,0 l/m 0 min 0 min 0 W/m 3,2 km/h (1 Bft) 96,81 %
04.11.2018 21:10 7,8 C 6,1 C 5,6 C 92 % 1010,6 hPa 0,0 l/m 0 min 0 min 0 W/m 0,0 km/h (0 Bft) 97,83 %
04.11.2018 21:12 7,8 C 6,7 C 5,6 C 92 % 1010,5 hPa 0,0 l/m 0 min 0 min 0 W/m 3,2 km/h (1 Bft) 100,00 %
04.11.2018 21:14 7,7 C 6,1 C 5,6 C 92 % 1010,6 hPa 0,0 l/m 0 min 0 min 0 W/m 3,2 km/h (1 Bft) 97,87 %
04.11.2018 21:16 7,7 C 6,7 C 5,6 C 92 % 1010,6 hPa 0,0 l/m 0 min 0 min 0 W/m 3,2 km/h (1 Bft) 100,00 %
04.11.2018 21:18 7,7 C 6,1 C 5,6 C 92 % 1010,6 hPa 0,0 l/m 0 min 0 min 0 W/m 0,0 km/h (0 Bft) 100,00 %
04.11.2018 21:20 7,7 C 6,1 C 5,6 C 92 % 1010,7 hPa 0,0 l/m 0 min 0 min 0 W/m 0,0 km/h (0 Bft) 100,00 %
04.11.2018 21:22 7,6 C 6,1 C 5,6 C 92 % 1010,7 hPa 0,0 l/m 0 min 0 min 0 W/m 0,0 km/h (0 Bft) 100,00 %
04.11.2018 21:24 7,6 C 6,1 C 5,6 C 92 % 1010,7 hPa 0,0 l/m 0 min 0 min 0 W/m 0,0 km/h (0 Bft) 100,00 %
04.11.2018 21:26 7,6 C 6,1 C 5,6 C 92 % 1010,7 hPa 0,0 l/m 0 min 0 min 0 W/m 0,0 km/h (0 Bft) 97,87 %
04.11.2018 21:28 7,6 C 6,1 C 5,6 C 92 % 1010,8 hPa 0,0 l/m 0 min 0 min 0 W/m 0,0 km/h (0 Bft) 100,00 %
04.11.2018 21:30 7,5 C 5,6 C 5,6 C 92 % 1010,6 hPa 0,0 l/m 0 min 0 min 0 W/m 0,0 km/h (0 Bft) 100,00 %
04.11.2018 21:32 7,5 C 5,6 C 5,0 C 92 % 1010,7 hPa 0,0 l/m 0 min 0 min 0 W/m 0,0 km/h (0 Bft) 100,00 %
04.11.2018 21:34 7,5 C 5,6 C 5,0 C 92 % 1010,8 hPa 0,0 l/m 0 min 0 min 0 W/m 0,0 km/h (0 Bft) 100,00 %
04.11.2018 21:38 7,4 C 5,6 C 5,0 C 92 % 1010,7 hPa 0,0 l/m 0 min 0 min 0 W/m 0,0 km/h (0 Bft) 100,00 %
04.11.2018 21:40 7,4 C 5,6 C 5,0 C 92 % 1010,8 hPa 0,0 l/m 0 min 0 min 0 W/m 0,0 km/h (0 Bft) 100,00 %
04.11.2018 21:42 7,3 C 5,6 C 5,0 C 92 % 1010,8 hPa 0,0 l/m 0 min 0 min 0 W/m 0,0 km/h (0 Bft) 100,00 %
04.11.2018 21:44 7,3 C 5,6 C 5,0 C 92 % 1010,9 hPa 0,0 l/m 0 min 0 min 0 W/m 0,0 km/h (0 Bft) 100,00 %
04.11.2018 21:46 7,3 C 5,6 C 5,0 C 92 % 1010,7 hPa 0,0 l/m 0 min 0 min 0 W/m 0,0 km/h (0 Bft) 100,00 %
04.11.2018 21:48 7,2 C 5,6 C 5,0 C 92 % 1010,7 hPa 0,0 l/m 0 min 0 min 0 W/m 0,0 km/h (0 Bft) 100,00 %
04.11.2018 21:50 7,2 C 5,6 C 5,0 C 92 % 1010,7 hPa 0,0 l/m 0 min 0 min 0 W/m 0,0 km/h (0 Bft) 100,00 %
04.11.2018 21:52 7,2 C 5,0 C 5,0 C 92 % 1010,7 hPa 0,0 l/m 0 min 0 min 0 W/m 0,0 km/h (0 Bft) 100,00 %
04.11.2018 21:54 7,1 C 5,6 C 5,0 C 92 % 1010,6 hPa 0,0 l/m 0 min 0 min 0 W/m 0,0 km/h (0 Bft) 100,00 %
04.11.2018 21:56 7,1 C 5,6 C 5,0 C 92 % 1010,6 hPa 0,0 l/m 0 min 0 min 0 W/m 0,0 km/h (0 Bft) 100,00 %
04.11.2018 21:58 7,1 C 5,6 C 5,0 C 92 % 1010,6 hPa 0,0 l/m 0 min 0 min 0 W/m 3,2 km/h (1 Bft) 100,00 %
04.11.2018 22:00 7,0 C 5,6 C 5,0 C 92 % 1010,6 hPa 0,0 l/m 0 min 0 min 0 W/m 0,0 km/h (0 Bft) 100,00 %
04.11.2018 22:02 7,0 C 5,6 C 5,0 C 92 % 1010,6 hPa 0,0 l/m 0 min 0 min 0 W/m 0,0 km/h (0 Bft) 100,00 %
04.11.2018 22:04 6,9 C 5,6 C 5,0 C 92 % 1010,6 hPa 0,0 l/m 0 min 0 min 0 W/m 0,0 km/h (0 Bft) 97,87 %
04.11.2018 22:08 6,9 C 5,6 C 5,0 C 92 % 1010,6 hPa 0,0 l/m 0 min 0 min 0 W/m 0,0 km/h (0 Bft) 100,00 %
04.11.2018 22:10 6,9 C 5,6 C 5,0 C 92 % 1010,6 hPa 0,0 l/m 0 min 0 min 0 W/m 0,0 km/h (0 Bft) 100,00 %
04.11.2018 22:12 6,9 C 5,6 C 5,0 C 92 % 1010,6 hPa 0,0 l/m 0 min 0 min 0 W/m 0,0 km/h (0 Bft) 100,00 %
04.11.2018 22:14 6,9 C 5,6 C 5,0 C 92 % 1010,6 hPa 0,0 l/m 0 min 0 min 0 W/m 0,0 km/h (0 Bft) 100,00 %
04.11.2018 22:16 6,8 C 5,6 C 5,0 C 92 % 1010,6 hPa 0,0 l/m 0 min 0 min 0 W/m 0,0 km/h (0 Bft) 97,87 %
04.11.2018 22:18 6,8 C 5,6 C 5,0 C 92 % 1010,5 hPa 0,0 l/m 0 min 0 min 0 W/m 0,0 km/h (0 Bft) 100,00 %
04.11.2018 22:20 6,8 C 5,0 C 5,0 C 92 % 1010,6 hPa 0,0 l/m 0 min 0 min 0 W/m 0,0 km/h (0 Bft) 100,00 %
04.11.2018 22:22 6,8 C 5,0 C 4,4 C 92 % 1010,5 hPa 0,0 l/m 0 min 0 min 0 W/m 0,0 km/h (0 Bft) 100,00 %
04.11.2018 22:24 6,7 C 5,0 C 4,4 C 92 % 1010,5 hPa 0,0 l/m 0 min 0 min 0 W/m 0,0 km/h (0 Bft) 100,00 %
04.11.2018 22:26 6,7 C 5,0 C 4,4 C 93 % 1010,5 hPa 0,0 l/m 0 min 0 min 0 W/m 0,0 km/h (0 Bft) 100,00 %
04.11.2018 22:28 6,7 C 5,0 C 4,4 C 93 % 1010,5 hPa 0,0 l/m 0 min 0 min 0 W/m 0,0 km/h (0 Bft) 100,00 %
04.11.2018 22:30 6,7 C 5,0 C 4,4 C 93 % 1010,4 hPa 0,0 l/m 0 min 0 min 0 W/m 0,0 km/h (0 Bft) 97,87 %
04.11.2018 22:32 6,6 C 5,0 C 4,4 C 93 % 1010,4 hPa 0,0 l/m 0 min 0 min 0 W/m 0,0 km/h (0 Bft) 97,83 %
04.11.2018 22:34 6,6 C 5,0 C 4,4 C 93 % 1010,3 hPa 0,0 l/m 0 min 0 min 0 W/m 0,0 km/h (0 Bft) 100,00 %
04.11.2018 22:38 6,6 C 5,0 C 4,4 C 92 % 1010,4 hPa 0,0 l/m 0 min 0 min 0 W/m 0,0 km/h (0 Bft) 98,94 %
04.11.2018 22:40 6,5 C 5,0 C 4,4 C 93 % 1010,3 hPa 0,0 l/m 0 min 0 min 0 W/m 0,0 km/h (0 Bft) 97,87 %
04.11.2018 22:42 6,5 C 5,0 C 5,0 C 93 % 1010,3 hPa 0,0 l/m 0 min 0 min 0 W/m 0,0 km/h (0 Bft) 97,87 %
04.11.2018 22:44 6,4 C 5,0 C 5,0 C 93 % 1010,2 hPa 0,0 l/m 0 min 0 min 0 W/m 0,0 km/h (0 Bft) 97,83 %
04.11.2018 22:46 6,4 C 5,0 C 5,0 C 93 % 1010,2 hPa 0,0 l/m 0 min 0 min 0 W/m 0,0 km/h (0 Bft) 95,74 %
04.11.2018 22:48 6,4 C 5,0 C 5,0 C 93 % 1010,2 hPa 0,0 l/m 0 min 0 min 0 W/m 0,0 km/h (0 Bft) 95,74 %
04.11.2018 22:50 6,4 C 5,0 C 5,0 C 93 % 1010,2 hPa 0,0 l/m 0 min 0 min 0 W/m 0,0 km/h (0 Bft) 97,87 %
04.11.2018 22:52 6,4 C 5,6 C 5,0 C 93 % 1010,2 hPa 0,0 l/m 0 min 0 min 0 W/m 3,2 km/h (1 Bft) 95,74 %
04.11.2018 22:54 6,4 C 5,6 C 5,0 C 93 % 1010,2 hPa 0,0 l/m 0 min 0 min 0 W/m 3,2 km/h (1 Bft) 95,74 %
04.11.2018 22:56 6,4 C 5,6 C 5,0 C 93 % 1010,2 hPa 0,0 l/m 0 min 0 min 0 W/m 3,2 km/h (1 Bft) 95,65 %
04.11.2018 22:58 6,4 C 5,6 C 5,0 C 93 % 1010,2 hPa 0,0 l/m 0 min 0 min 0 W/m 3,2 km/h (1 Bft) 95,74 %
04.11.2018 23:00 6,4 C 5,6 C 5,0 C 93 % 1010,1 hPa 0,0 l/m 0 min 0 min 0 W/m 3,2 km/h (1 Bft) 93,62 %
04.11.2018 23:02 6,4 C 5,6 C 5,0 C 93 % 1010,0 hPa 0,0 l/m 0 min 0 min 0 W/m 0,0 km/h (0 Bft) 95,74 %
04.11.2018 23:04 6,4 C 5,6 C 5,0 C 93 % 1010,0 hPa 0,0 l/m 0 min 0 min 0 W/m 3,2 km/h (1 Bft) 95,74 %
04.11.2018 23:08 6,4 C 5,6 C 5,0 C 93 % 1009,9 hPa 0,0 l/m 0 min 0 min 0 W/m 0,0 km/h (0 Bft) 93,55 %
04.11.2018 23:10 6,4 C 5,6 C 5,0 C 93 % 1009,9 hPa 0,0 l/m 0 min 0 min 0 W/m 0,0 km/h (0 Bft) 91,49 %
04.11.2018 23:12 6,4 C 5,6 C 5,0 C 93 % 1010,0 hPa 0,0 l/m 0 min 0 min 0 W/m 0,0 km/h (0 Bft) 87,23 %
04.11.2018 23:14 6,4 C 5,6 C 5,0 C 93 % 1009,9 hPa 0,0 l/m 0 min 0 min 0 W/m 3,2 km/h (1 Bft) 93,62 %
04.11.2018 23:16 6,4 C 5,6 C 5,0 C 93 % 1009,9 hPa 0,0 l/m 0 min 0 min 0 W/m 0,0 km/h (0 Bft) 95,74 %
04.11.2018 23:18 6,4 C 5,6 C 5,0 C 93 % 1009,9 hPa 0,0 l/m 0 min 0 min 0 W/m 0,0 km/h (0 Bft) 93,48 %
04.11.2018 23:20 6,4 C 5,6 C 5,0 C 94 % 1009,8 hPa 0,0 l/m 0 min 0 min 0 W/m 0,0 km/h (0 Bft) 93,62 %
04.11.2018 23:22 6,4 C 5,6 C 5,0 C 94 % 1009,8 hPa 0,0 l/m 0 min 0 min 0 W/m 0,0 km/h (0 Bft) 93,62 %
04.11.2018 23:24 6,4 C 5,6 C 5,0 C 94 % 1009,8 hPa 0,0 l/m 0 min 0 min 0 W/m 0,0 km/h (0 Bft) 95,74 %
04.11.2018 23:26 6,4 C 5,6 C 4,4 C 94 % 1009,7 hPa 0,0 l/m 0 min 0 min 0 W/m 0,0 km/h (0 Bft) 93,62 %
04.11.2018 23:28 6,3 C 5,0 C 4,4 C 94 % 1009,7 hPa 0,0 l/m 0 min 0 min 0 W/m 0,0 km/h (0 Bft) 93,62 %
04.11.2018 23:30 6,3 C 5,0 C 4,4 C 94 % 1009,7 hPa 0,0 l/m 0 min 0 min 0 W/m 0,0 km/h (0 Bft) 95,65 %
04.11.2018 23:32 6,3 C 5,0 C 4,4 C 94 % 1009,6 hPa 0,0 l/m 0 min 0 min 0 W/m 0,0 km/h (0 Bft) 91,49 %
04.11.2018 23:34 6,3 C 5,0 C 4,4 C 94 % 1009,6 hPa 0,0 l/m 0 min 0 min 0 W/m 0,0 km/h (0 Bft) 97,87 %
04.11.2018 23:38 6,3 C 5,0 C 4,4 C 94 % 1009,5 hPa 0,0 l/m 0 min 0 min 0 W/m 0,0 km/h (0 Bft) 97,87 %
04.11.2018 23:40 6,3 C 5,0 C 4,4 C 94 % 1009,5 hPa 0,0 l/m 0 min 0 min 0 W/m 0,0 km/h (0 Bft) 95,74 %
04.11.2018 23:42 6,2 C 5,0 C 4,4 C 94 % 1009,5 hPa 0,0 l/m 0 min 0 min 0 W/m 0,0 km/h (0 Bft) 93,48 %
04.11.2018 23:44 6,2 C 5,0 C 4,4 C 94 % 1009,5 hPa 0,0 l/m 0 min 0 min 0 W/m 0,0 km/h (0 Bft) 97,87 %
04.11.2018 23:46 6,2 C 5,0 C 4,4 C 94 % 1009,6 hPa 0,0 l/m 0 min 0 min 0 W/m 0,0 km/h (0 Bft) 97,87 %
04.11.2018 23:48 6,2 C 5,0 C 4,4 C 94 % 1009,5 hPa 0,0 l/m 0 min 0 min 0 W/m 0,0 km/h (0 Bft) 97,87 %
04.11.2018 23:50 6,2 C 5,0 C 4,4 C 94 % 1009,5 hPa 0,0 l/m 0 min 0 min 0 W/m 0,0 km/h (0 Bft) 97,87 %
04.11.2018 23:52 6,2 C 5,0 C 4,4 C 94 % 1009,5 hPa 0,0 l/m 0 min 0 min 0 W/m 0,0 km/h (0 Bft) 97,87 %
04.11.2018 23:54 6,1 C 4,4 C 4,4 C 94 % 1009,5 hPa 0,0 l/m 0 min 0 min 0 W/m 0,0 km/h (0 Bft) 97,83 %
04.11.2018 23:56 6,1 C 4,4 C 4,4 C 94 % 1009,5 hPa 0,0 l/m 0 min 0 min 0 W/m 0,0 km/h (0 Bft) 97,87 %
04.11.2018 23:58 6,1 C 4,4 C 4,4 C 94 % 1009,5 hPa 0,0 l/m 0 min 0 min 0 W/m 0,0 km/h (0 Bft) 100,00 %
_ Min-Zeit 01:58 01:08 01:56 14:46 23:38 - - - - 00:14 09:54
Minimum _ 1,9 C 1,1 C 0,6 C 78 % 1009,5 hPa - - - - 0,0 km/h (0 Bft) 80,43 %
_ Max-Zeit 14:44 14:28 13:08 08:30 00:00 00:00 12:08 00:00 12:30 12:10 00:02
Maximum _ 13,0 C 16,7 C 11,7 C 97 % 1020,4 hPa 0,0 l/m 4 min 0 min 448 W/m 25,7 km/h
O-SO (4 Bft)
100,00 %
Durchschnitt _ 7,0 C 6,9 C 5,9 C 91 % 1014,4 hPa #0,0 l/m #4:14 h #0 min. 145 W/m 6,3 km/h (2 Bft) 97,01 %
© 2018 W. Hausmann